Time,TemperatureF,DewpointF,PressureIn,WindDirection,WindDirectionDegrees,WindSpeedMPH,WindSpeedGustMPH,Humidity,HourlyPrecipIn,Conditions,Clouds,dailyrainin,SoftwareType,DateUTC
2012-11-12 00:00:00,57.7,57.7,30.47,SE,135,10.0,11.0,0,0.00,,,0.00,meteohub,2012-11-12 05:00:00,
2012-11-12 00:01:00,57.7,57.7,30.46,SE,135,10.0,11.0,0,0.00,,,0.00,meteohub,2012-11-12 05:01:00,
2012-11-12 00:06:00,57.7,57.7,30.46,SE,135,10.0,11.0,0,0.00,,,0.00,meteohub,2012-11-12 05:06:00,
2012-11-12 00:11:00,57.6,57.6,30.46,SE,135,0.0,11.0,0,0.00,,,0.00,meteohub,2012-11-12 05:11:00,
2012-11-12 00:12:00,57.6,57.6,30.46,East,90,0.0,11.0,0,0.00,,,0.00,meteohub,2012-11-12 05:12:00,
2012-11-12 00:13:00,57.6,57.6,30.46,SE,135,9.0,11.0,0,0.00,,,0.00,meteohub,2012-11-12 05:13:00,
2012-11-12 00:16:00,57.6,57.6,30.46,East,90,8.0,10.0,0,0.00,,,0.00,meteohub,2012-11-12 05:16:00,
2012-11-12 00:17:00,57.6,57.6,30.46,SE,135,7.0,10.0,0,0.00,,,0.00,meteohub,2012-11-12 05:17:00,
2012-11-12 00:18:00,57.6,57.6,30.46,East,90,8.0,10.0,0,0.00,,,0.00,meteohub,2012-11-12 05:18:00,
2012-11-12 00:19:00,57.6,57.6,30.46,SE,135,1.0,10.0,0,0.00,,,0.00,meteohub,2012-11-12 05:19:00,
2012-11-12 00:21:00,57.6,57.6,30.46,SE,135,6.0,10.0,0,0.00,,,0.00,meteohub,2012-11-12 05:21:00,
2012-11-12 00:23:00,57.6,57.6,30.46,East,90,0.0,10.0,0,0.00,,,0.00,meteohub,2012-11-12 05:23:00,
2012-11-12 00:25:00,57.7,57.7,30.46,SE,135,12.0,12.0,0,0.00,,,0.00,meteohub,2012-11-12 05:25:00,
2012-11-12 00:27:00,57.7,57.7,30.46,SE,135,8.0,10.0,0,0.00,,,0.00,meteohub,2012-11-12 05:27:00,
2012-11-12 00:29:00,57.7,57.7,30.46,SE,135,10.0,10.0,0,0.00,,,0.00,meteohub,2012-11-12 05:29:00,
2012-11-12 00:30:00,57.7,57.7,30.46,SE,135,9.0,10.0,0,0.00,,,0.00,meteohub,2012-11-12 05:30:00,
2012-11-12 00:32:00,57.7,57.7,30.46,East,90,7.0,12.0,0,0.00,,,0.00,meteohub,2012-11-12 05:32:00,
2012-11-12 00:35:00,57.6,57.6,30.46,SE,135,6.0,12.0,0,0.00,,,0.00,meteohub,2012-11-12 05:35:00,
2012-11-12 00:36:00,57.6,57.6,30.46,ESE,113,12.0,12.0,0,0.00,,,0.00,meteohub,2012-11-12 05:36:00,
2012-11-12 00:38:00,57.7,57.7,30.46,East,90,6.0,12.0,0,0.00,,,0.00,meteohub,2012-11-12 05:38:00,
2012-11-12 00:41:00,57.6,57.6,30.46,East,90,7.0,12.0,0,0.00,,,0.00,meteohub,2012-11-12 05:41:00,
2012-11-12 00:42:00,57.6,57.6,30.46,WSW,248,9.0,12.0,0,0.00,,,0.00,meteohub,2012-11-12 05:42:00,
2012-11-12 00:45:00,57.6,57.6,30.46,SE,135,11.0,12.0,0,0.00,,,0.00,meteohub,2012-11-12 05:45:00,
2012-11-12 00:46:00,57.6,57.6,30.46,SE,135,11.0,12.0,0,0.00,,,0.00,meteohub,2012-11-12 05:46:00,
2012-11-12 00:47:00,57.6,57.6,30.46,SE,135,8.0,12.0,0,0.00,,,0.00,meteohub,2012-11-12 05:47:00,
2012-11-12 00:51:00,57.4,57.4,30.46,SE,135,0.0,12.0,0,0.00,,,0.00,meteohub,2012-11-12 05:51:00,
2012-11-12 00:52:00,57.4,57.4,30.46,SE,135,0.0,12.0,0,0.00,,,0.00,meteohub,2012-11-12 05:52:00,
2012-11-12 00:56:00,57.4,57.4,30.46,South,180,13.0,16.0,0,0.00,,,0.00,meteohub,2012-11-12 05:56:00,
2012-11-12 00:57:00,57.6,57.6,30.46,South,180,7.0,16.0,0,0.00,,,0.00,meteohub,2012-11-12 05:57:00,
2012-11-12 01:01:00,57.6,57.6,30.46,South,180,10.0,16.0,0,0.00,,,0.00,meteohub,2012-11-12 06:01:00,
2012-11-12 01:02:00,57.6,57.6,30.46,South,180,10.0,16.0,0,0.00,,,0.00,meteohub,2012-11-12 06:02:00,
2012-11-12 01:04:00,57.6,57.6,30.45,South,180,10.0,16.0,0,0.00,,,0.00,meteohub,2012-11-12 06:04:00,
2012-11-12 01:07:00,57.2,57.2,30.46,South,180,1.0,16.0,0,0.00,,,0.00,meteohub,2012-11-12 06:07:00,
2012-11-12 01:09:00,57.2,57.2,30.46,South,180,4.0,16.0,0,0.00,,,0.00,meteohub,2012-11-12 06:09:00,
2012-11-12 01:10:00,57.2,57.2,30.45,South,180,8.0,13.0,0,0.00,,,0.00,meteohub,2012-11-12 06:10:00,
2012-11-12 01:11:00,57.2,57.2,30.45,SE,135,8.0,13.0,0,0.00,,,0.00,meteohub,2012-11-12 06:11:00,
2012-11-12 01:12:00,57.4,57.4,30.45,SE,135,11.0,13.0,0,0.00,,,0.00,meteohub,2012-11-12 06:12:00,
2012-11-12 01:15:00,57.4,57.4,30.45,East,90,0.0,13.0,0,0.00,,,0.00,meteohub,2012-11-12 06:15:00,
2012-11-12 01:16:00,57.4,57.4,30.46,SE,135,8.0,11.0,0,0.00,,,0.00,meteohub,2012-11-12 06:16:00,
2012-11-12 01:18:00,57.2,57.2,30.45,SE,135,6.0,11.0,0,0.00,,,0.00,meteohub,2012-11-12 06:18:00,
2012-11-12 01:20:00,57.2,57.2,30.46,East,90,0.0,11.0,0,0.00,,,0.00,meteohub,2012-11-12 06:20:00,
2012-11-12 01:21:00,57.2,57.2,30.45,East,90,8.0,11.0,0,0.00,,,0.00,meteohub,2012-11-12 06:21:00,
2012-11-12 01:23:00,57.2,57.2,30.45,SE,135,9.0,11.0,0,0.00,,,0.00,meteohub,2012-11-12 06:23:00,
2012-11-12 01:26:00,57.2,57.2,30.45,SE,135,4.0,11.0,0,0.00,,,0.00,meteohub,2012-11-12 06:26:00,
2012-11-12 01:27:00,57.2,57.2,30.45,SE,135,0.0,11.0,0,0.00,,,0.00,meteohub,2012-11-12 06:27:00,
2012-11-12 01:28:00,57.2,57.2,30.45,SE,135,5.0,11.0,0,0.00,,,0.00,meteohub,2012-11-12 06:28:00,
2012-11-12 01:32:00,57.0,57.0,30.46,South,180,9.0,11.0,0,0.00,,,0.00,meteohub,2012-11-12 06:32:00,
2012-11-12 01:33:00,57.0,57.0,30.46,SE,135,1.0,11.0,0,0.00,,,0.00,meteohub,2012-11-12 06:33:00,
2012-11-12 01:34:00,57.0,57.0,30.46,SE,135,1.0,11.0,0,0.00,,,0.00,meteohub,2012-11-12 06:34:00,
2012-11-12 01:37:00,57.0,57.0,30.46,SE,135,11.0,11.0,0,0.00,,,0.00,meteohub,2012-11-12 06:37:00,
2012-11-12 01:39:00,57.0,57.0,30.45,SE,135,2.0,11.0,0,0.00,,,0.00,meteohub,2012-11-12 06:39:00,
2012-11-12 01:43:00,56.7,56.7,30.45,SE,135,6.0,11.0,0,0.00,,,0.00,meteohub,2012-11-12 06:43:00,
2012-11-12 01:44:00,56.5,56.5,30.45,East,90,0.0,11.0,0,0.00,,,0.00,meteohub,2012-11-12 06:44:00,
2012-11-12 01:46:00,56.7,56.7,30.45,SE,135,4.0,11.0,0,0.00,,,0.00,meteohub,2012-11-12 06:46:00,
2012-11-12 01:48:00,56.5,56.5,30.45,South,180,11.0,11.0,0,0.00,,,0.00,meteohub,2012-11-12 06:48:00,
2012-11-12 01:49:00,56.5,56.5,30.45,South,180,8.0,11.0,0,0.00,,,0.00,meteohub,2012-11-12 06:49:00,
2012-11-12 01:50:00,56.5,56.5,30.45,SE,135,8.0,11.0,0,0.00,,,0.00,meteohub,2012-11-12 06:50:00,
2012-11-12 01:51:00,56.5,56.5,30.45,SE,135,0.0,11.0,0,0.00,,,0.00,meteohub,2012-11-12 06:51:00,
2012-11-12 01:54:00,56.5,56.5,30.45,SE,135,7.0,11.0,0,0.00,,,0.00,meteohub,2012-11-12 06:54:00,
2012-11-12 01:55:00,56.5,56.5,30.45,SE,135,5.0,11.0,0,0.00,,,0.00,meteohub,2012-11-12 06:55:00,
2012-11-12 01:57:00,56.7,56.7,30.46,SE,135,8.0,11.0,0,0.00,,,0.00,meteohub,2012-11-12 06:57:00,
2012-11-12 01:59:00,56.7,56.7,30.46,SE,135,0.0,11.0,0,0.00,,,0.00,meteohub,2012-11-12 06:59:00,
2012-11-12 02:00:00,56.7,56.7,30.46,SE,135,0.0,11.0,0,0.00,,,0.00,meteohub,2012-11-12 07:00:00,
2012-11-12 02:01:00,56.7,56.7,30.46,SE,135,0.0,11.0,0,0.00,,,0.00,meteohub,2012-11-12 07:01:00,
2012-11-12 02:03:00,56.7,56.7,30.46,SE,135,0.0,11.0,0,0.00,,,0.00,meteohub,2012-11-12 07:03:00,
2012-11-12 02:04:00,56.7,56.7,30.45,SE,135,0.0,11.0,0,0.00,,,0.00,meteohub,2012-11-12 07:04:00,
2012-11-12 02:06:00,56.7,56.7,30.46,SE,135,0.0,9.0,0,0.00,,,0.00,meteohub,2012-11-12 07:06:00,
2012-11-12 02:08:00,56.5,56.5,30.46,SE,135,0.0,9.0,0,0.00,,,0.00,meteohub,2012-11-12 07:08:00,
2012-11-12 02:09:00,56.5,56.5,30.46,SE,135,0.0,9.0,0,0.00,,,0.00,meteohub,2012-11-12 07:09:00,
2012-11-12 02:11:00,56.3,56.3,30.45,East,90,8.0,9.0,0,0.00,,,0.00,meteohub,2012-11-12 07:11:00,
2012-11-12 02:14:00,56.5,56.5,30.46,South,180,0.0,9.0,0,0.00,,,0.00,meteohub,2012-11-12 07:14:00,
2012-11-12 02:15:00,56.5,56.5,30.45,SE,135,7.0,9.0,0,0.00,,,0.00,meteohub,2012-11-12 07:15:00,
2012-11-12 02:17:00,56.5,56.5,30.46,South,180,5.0,8.0,0,0.00,,,0.00,meteohub,2012-11-12 07:17:00,
2012-11-12 02:19:00,56.5,56.5,30.47,South,180,0.0,8.0,0,0.00,,,0.00,meteohub,2012-11-12 07:19:00,
2012-11-12 02:20:00,56.5,56.5,30.47,South,180,0.0,8.0,0,0.00,,,0.00,meteohub,2012-11-12 07:20:00,
2012-11-12 02:23:00,56.7,56.7,30.47,East,90,0.0,11.0,0,0.00,,,0.00,meteohub,2012-11-12 07:23:00,
2012-11-12 02:25:00,56.7,56.7,30.46,SE,135,0.0,11.0,0,0.00,,,0.00,meteohub,2012-11-12 07:25:00,
2012-11-12 02:26:00,56.7,56.7,30.46,SE,135,6.0,11.0,0,0.00,,,0.00,meteohub,2012-11-12 07:26:00,
2012-11-12 02:27:00,56.5,56.5,30.46,SE,135,4.0,11.0,0,0.00,,,0.00,meteohub,2012-11-12 07:27:00,
2012-11-12 02:28:00,56.5,56.5,30.46,SE,135,0.0,11.0,0,0.00,,,0.00,meteohub,2012-11-12 07:28:00,
2012-11-12 02:31:00,56.5,56.5,30.46,East,90,0.0,11.0,0,0.00,,,0.00,meteohub,2012-11-12 07:31:00,
2012-11-12 02:32:00,56.5,56.5,30.46,East,90,0.0,11.0,0,0.00,,,0.00,meteohub,2012-11-12 07:32:00,
2012-11-12 02:33:00,56.5,56.5,30.45,ESE,113,0.0,11.0,0,0.00,,,0.00,meteohub,2012-11-12 07:33:00,
2012-11-12 02:34:00,56.3,56.3,30.45,SE,135,0.0,11.0,0,0.00,,,0.00,meteohub,2012-11-12 07:34:00,
2012-11-12 02:36:00,56.3,56.3,30.46,East,90,0.0,8.0,0,0.00,,,0.00,meteohub,2012-11-12 07:36:00,
2012-11-12 02:37:00,56.3,56.3,30.46,SE,135,0.0,8.0,0,0.00,,,0.00,meteohub,2012-11-12 07:37:00,
2012-11-12 02:38:00,56.3,56.3,30.46,SE,135,5.0,8.0,0,0.00,,,0.00,meteohub,2012-11-12 07:38:00,
2012-11-12 02:39:00,56.5,56.5,30.46,SE,135,0.0,8.0,0,0.00,,,0.00,meteohub,2012-11-12 07:39:00,
2012-11-12 02:42:00,56.5,56.5,30.46,SE,135,0.0,9.0,0,0.00,,,0.00,meteohub,2012-11-12 07:42:00,
2012-11-12 02:43:00,56.5,56.5,30.46,SE,135,0.0,9.0,0,0.00,,,0.00,meteohub,2012-11-12 07:43:00,
2012-11-12 02:44:00,56.3,56.3,30.46,East,90,0.0,9.0,0,0.00,,,0.00,meteohub,2012-11-12 07:44:00,
2012-11-12 02:45:00,56.3,56.3,30.46,East,90,0.0,9.0,0,0.00,,,0.00,meteohub,2012-11-12 07:45:00,
2012-11-12 02:47:00,56.3,56.3,30.46,SE,135,0.0,9.0,0,0.00,,,0.00,meteohub,2012-11-12 07:47:00,
2012-11-12 02:48:00,56.3,56.3,30.46,SE,135,1.0,9.0,0,0.00,,,0.00,meteohub,2012-11-12 07:48:00,
2012-11-12 02:50:00,56.3,56.3,30.46,SE,135,0.0,9.0,0,0.00,,,0.00,meteohub,2012-11-12 07:50:00,
2012-11-12 02:52:00,56.5,56.5,30.46,South,180,0.0,9.0,0,0.00,,,0.00,meteohub,2012-11-12 07:52:00,
2012-11-12 02:54:00,56.5,56.5,30.46,East,90,0.0,9.0,0,0.00,,,0.00,meteohub,2012-11-12 07:54:00,
2012-11-12 02:55:00,56.3,56.3,30.46,ESE,113,7.0,8.0,0,0.00,,,0.00,meteohub,2012-11-12 07:55:00,
2012-11-12 02:56:00,56.3,56.3,30.46,ESE,113,7.0,8.0,0,0.00,,,0.00,meteohub,2012-11-12 07:56:00,
2012-11-12 02:57:00,56.5,56.5,30.46,SE,135,0.0,8.0,0,0.00,,,0.00,meteohub,2012-11-12 07:57:00,
2012-11-12 03:00:00,56.3,56.3,30.46,SE,135,1.0,8.0,0,0.00,,,0.00,meteohub,2012-11-12 08:00:00,
2012-11-12 03:01:00,56.3,56.3,30.46,SE,135,1.0,8.0,0,0.00,,,0.00,meteohub,2012-11-12 08:01:00,
2012-11-12 03:04:00,56.3,56.3,30.46,SE,135,1.0,8.0,0,0.00,,,0.00,meteohub,2012-11-12 08:04:00,
2012-11-12 03:06:00,56.3,56.3,30.46,East,90,0.0,7.0,0,0.00,,,0.00,meteohub,2012-11-12 08:06:00,
2012-11-12 03:07:00,56.3,56.3,30.46,South,180,0.0,7.0,0,0.00,,,0.00,meteohub,2012-11-12 08:07:00,
2012-11-12 03:09:00,56.1,56.1,30.45,East,90,0.0,7.0,0,0.00,,,0.00,meteohub,2012-11-12 08:09:00,
2012-11-12 03:11:00,55.9,55.9,30.46,SSE,158,0.0,7.0,0,0.00,,,0.00,meteohub,2012-11-12 08:11:00,
2012-11-12 03:12:00,55.9,55.9,30.46,East,90,0.0,7.0,0,0.00,,,0.00,meteohub,2012-11-12 08:12:00,
2012-11-12 03:14:00,55.9,55.9,30.46,SE,135,0.0,7.0,0,0.00,,,0.00,meteohub,2012-11-12 08:14:00,
2012-11-12 03:16:00,55.9,55.9,30.45,South,180,0.0,4.0,0,0.00,,,0.00,meteohub,2012-11-12 08:16:00,
2012-11-12 03:17:00,55.9,55.9,30.45,SE,135,0.0,4.0,0,0.00,,,0.00,meteohub,2012-11-12 08:17:00,
2012-11-12 03:20:00,55.8,55.8,30.46,ESE,113,4.0,4.0,0,0.00,,,0.00,meteohub,2012-11-12 08:20:00,
2012-11-12 03:22:00,55.8,55.8,30.46,SE,135,1.0,13.0,0,0.00,,,0.00,meteohub,2012-11-12 08:22:00,
2012-11-12 03:25:00,55.6,-0.2,30.46,South,180,0.0,13.0,10,0.00,,,0.00,meteohub,2012-11-12 08:25:00,
2012-11-12 03:27:00,55.6,-0.2,30.46,South,180,0.0,13.0,10,0.00,,,0.00,meteohub,2012-11-12 08:27:00,
2012-11-12 03:28:00,55.6,-0.2,30.46,SE,135,0.0,13.0,10,0.00,,,0.00,meteohub,2012-11-12 08:28:00,
2012-11-12 03:32:00,55.4,-0.2,30.45,SE,135,0.0,13.0,10,0.00,,,0.00,meteohub,2012-11-12 08:32:00,
2012-11-12 03:33:00,55.4,-0.2,30.45,South,180,0.0,13.0,10,0.00,,,0.00,meteohub,2012-11-12 08:33:00,
2012-11-12 03:37:00,55.4,1.8,30.45,SE,135,8.0,8.0,11,0.00,,,0.00,meteohub,2012-11-12 08:37:00,
2012-11-12 03:38:00,55.4,1.8,30.45,SE,135,8.0,8.0,11,0.00,,,0.00,meteohub,2012-11-12 08:38:00,
2012-11-12 03:39:00,55.4,1.8,30.45,SE,135,0.0,8.0,11,0.00,,,0.00,meteohub,2012-11-12 08:39:00,
2012-11-12 03:43:00,55.4,1.8,30.45,East,90,0.0,8.0,11,0.00,,,0.00,meteohub,2012-11-12 08:43:00,
2012-11-12 03:44:00,55.4,1.8,30.45,East,90,0.0,8.0,11,0.00,,,0.00,meteohub,2012-11-12 08:44:00,
2012-11-12 03:46:00,55.4,3.6,30.45,East,90,0.0,8.0,12,0.00,,,0.00,meteohub,2012-11-12 08:46:00,
2012-11-12 03:49:00,55.4,3.6,30.45,SE,135,0.0,8.0,12,0.00,,,0.00,meteohub,2012-11-12 08:49:00,
2012-11-12 03:51:00,55.2,3.4,30.45,East,90,0.0,11.0,12,0.00,,,0.00,meteohub,2012-11-12 08:51:00,
2012-11-12 03:54:00,55.2,3.4,30.45,SE,135,0.0,11.0,12,0.00,,,0.00,meteohub,2012-11-12 08:54:00,
2012-11-12 03:56:00,55.2,5.2,30.45,SE,135,0.0,11.0,13,0.00,,,0.00,meteohub,2012-11-12 08:56:00,
2012-11-12 03:59:00,55.2,5.2,30.45,SE,135,0.0,11.0,13,0.00,,,0.00,meteohub,2012-11-12 08:59:00,
2012-11-12 04:00:00,55.2,5.2,30.45,SE,135,0.0,11.0,13,0.00,,,0.00,meteohub,2012-11-12 09:00:00,
2012-11-12 04:01:00,55.2,5.2,30.45,SE,135,0.0,11.0,13,0.00,,,0.00,meteohub,2012-11-12 09:01:00,
2012-11-12 04:04:00,55.2,5.2,30.45,SE,135,0.0,11.0,13,0.00,,,0.00,meteohub,2012-11-12 09:04:00,
2012-11-12 04:06:00,55.2,5.2,30.45,SE,135,0.0,1.0,13,0.00,,,0.00,meteohub,2012-11-12 09:06:00,
2012-11-12 04:07:00,55.2,5.2,30.45,SE,135,0.0,1.0,13,0.00,,,0.00,meteohub,2012-11-12 09:07:00,
2012-11-12 04:11:00,55.6,5.5,30.45,SE,135,2.0,2.0,13,0.00,,,0.00,meteohub,2012-11-12 09:11:00,
2012-11-12 04:12:00,55.6,7.2,30.45,SE,135,0.0,1.0,14,0.00,,,0.00,meteohub,2012-11-12 09:12:00,
2012-11-12 04:13:00,55.4,7.0,30.45,SE,135,3.0,3.0,14,0.00,,,0.00,meteohub,2012-11-12 09:13:00,
2012-11-12 04:16:00,55.6,7.2,30.44,SE,135,4.0,6.0,14,0.00,,,0.00,meteohub,2012-11-12 09:16:00,
2012-11-12 04:17:00,55.4,7.0,30.45,East,90,4.0,6.0,14,0.00,,,0.00,meteohub,2012-11-12 09:17:00,
2012-11-12 04:18:00,55.6,7.2,30.44,South,180,11.0,11.0,14,0.00,,,0.00,meteohub,2012-11-12 09:18:00,
2012-11-12 04:21:00,55.6,7.2,30.45,SE,135,0.0,11.0,14,0.00,,,0.00,meteohub,2012-11-12 09:21:00,
2012-11-12 04:22:00,55.4,7.0,30.45,South,180,0.0,11.0,14,0.00,,,0.00,meteohub,2012-11-12 09:22:00,
2012-11-12 04:23:00,55.4,7.0,30.45,South,180,0.0,11.0,14,0.00,,,0.00,meteohub,2012-11-12 09:23:00,
2012-11-12 04:26:00,55.4,8.4,30.45,SE,135,0.0,11.0,15,0.00,,,0.00,meteohub,2012-11-12 09:26:00,
2012-11-12 04:27:00,55.4,8.4,30.45,SE,135,0.0,11.0,15,0.00,,,0.00,meteohub,2012-11-12 09:27:00,
2012-11-12 04:28:00,55.4,8.4,30.45,SE,135,1.0,11.0,15,0.00,,,0.00,meteohub,2012-11-12 09:28:00,
2012-11-12 04:29:00,55.4,8.4,30.45,SE,135,1.0,11.0,15,0.00,,,0.00,meteohub,2012-11-12 09:29:00,
2012-11-12 04:31:00,55.4,8.4,30.45,South,180,0.0,11.0,15,0.00,,,0.00,meteohub,2012-11-12 09:31:00,
2012-11-12 04:33:00,55.2,8.4,30.45,SE,135,0.0,11.0,15,0.00,,,0.00,meteohub,2012-11-12 09:33:00,
2012-11-12 04:34:00,55.2,8.4,30.45,SE,135,3.0,11.0,15,0.00,,,0.00,meteohub,2012-11-12 09:34:00,
2012-11-12 04:37:00,55.2,8.4,30.45,East,90,0.0,4.0,15,0.00,,,0.00,meteohub,2012-11-12 09:37:00,
2012-11-12 04:38:00,55.2,9.9,30.45,SE,135,0.0,4.0,16,0.00,,,0.00,meteohub,2012-11-12 09:38:00,
2012-11-12 04:39:00,55.2,9.9,30.45,SE,135,0.0,4.0,16,0.00,,,0.00,meteohub,2012-11-12 09:39:00,
2012-11-12 04:40:00,55.2,9.9,30.45,SE,135,0.0,3.0,16,0.00,,,0.00,meteohub,2012-11-12 09:40:00,
2012-11-12 04:42:00,55.2,9.9,30.45,SE,135,0.0,3.0,16,0.00,,,0.00,meteohub,2012-11-12 09:42:00,
2012-11-12 04:43:00,55.2,9.9,30.45,SE,135,0.0,3.0,16,0.00,,,0.00,meteohub,2012-11-12 09:43:00,
2012-11-12 04:44:00,55.0,9.7,30.46,SE,135,0.0,3.0,16,0.00,,,0.00,meteohub,2012-11-12 09:44:00,
2012-11-12 04:45:00,55.0,9.7,30.45,SE,135,0.0,3.0,16,0.00,,,0.00,meteohub,2012-11-12 09:45:00,
2012-11-12 04:48:00,55.0,10.9,30.45,NW,315,0.0,3.0,17,0.00,,,0.00,meteohub,2012-11-12 09:48:00,
2012-11-12 04:50:00,55.0,10.9,30.45,SE,135,0.0,1.0,17,0.00,,,0.00,meteohub,2012-11-12 09:50:00,
2012-11-12 04:52:00,55.0,10.9,30.45,SE,135,0.0,1.0,17,0.00,,,0.00,meteohub,2012-11-12 09:52:00,
2012-11-12 04:53:00,55.2,11.1,30.45,SE,135,8.0,8.0,17,0.00,,,0.00,meteohub,2012-11-12 09:53:00,
2012-11-12 04:54:00,55.2,11.1,30.45,South,180,0.0,1.0,17,0.00,,,0.00,meteohub,2012-11-12 09:54:00,
2012-11-12 04:55:00,55.2,11.1,30.45,South,180,8.0,8.0,17,0.00,,,0.00,meteohub,2012-11-12 09:55:00,
2012-11-12 04:57:00,55.2,11.1,30.46,SE,135,5.0,8.0,17,0.00,,,0.00,meteohub,2012-11-12 09:57:00,
2012-11-12 04:58:00,55.2,11.1,30.45,SE,135,0.0,8.0,17,0.00,,,0.00,meteohub,2012-11-12 09:58:00,
2012-11-12 04:59:00,55.2,11.1,30.46,East,90,0.0,8.0,17,0.00,,,0.00,meteohub,2012-11-12 09:59:00,
2012-11-12 05:01:00,55.2,11.1,30.45,East,90,0.0,9.0,17,0.00,,,0.00,meteohub,2012-11-12 10:01:00,
2012-11-12 05:03:00,55.2,11.1,30.46,East,90,0.0,9.0,17,0.00,,,0.00,meteohub,2012-11-12 10:03:00,
2012-11-12 05:04:00,55.2,11.1,30.46,East,90,0.0,9.0,17,0.00,,,0.00,meteohub,2012-11-12 10:04:00,
2012-11-12 05:05:00,55.2,11.1,30.46,East,90,0.0,9.0,17,0.00,,,0.00,meteohub,2012-11-12 10:05:00,
2012-11-12 05:08:00,55.2,11.1,30.45,SE,135,0.0,9.0,17,0.00,,,0.00,meteohub,2012-11-12 10:08:00,
2012-11-12 05:09:00,55.4,11.3,30.45,SE,135,0.0,9.0,17,0.00,,,0.00,meteohub,2012-11-12 10:09:00,
2012-11-12 05:10:00,55.4,11.3,30.45,East,90,0.0,8.0,17,0.00,,,0.00,meteohub,2012-11-12 10:10:00,
2012-11-12 05:13:00,55.4,11.3,30.46,East,90,0.0,8.0,17,0.00,,,0.00,meteohub,2012-11-12 10:13:00,
2012-11-12 05:14:00,55.4,11.3,30.45,SE,135,0.0,8.0,17,0.00,,,0.00,meteohub,2012-11-12 10:14:00,
2012-11-12 05:15:00,55.4,11.3,30.45,SE,135,0.0,0.0,17,0.00,,,0.00,meteohub,2012-11-12 10:15:00,
2012-11-12 05:18:00,55.4,11.3,30.46,South,180,0.0,0.0,17,0.00,,,0.00,meteohub,2012-11-12 10:18:00,
2012-11-12 05:19:00,55.4,11.3,30.45,SE,135,0.0,0.0,17,0.00,,,0.00,meteohub,2012-11-12 10:19:00,
2012-11-12 05:20:00,55.4,11.3,30.45,SE,135,0.0,0.0,17,0.00,,,0.00,meteohub,2012-11-12 10:20:00,
2012-11-12 05:21:00,55.4,11.3,30.45,SE,135,0.0,0.0,17,0.00,,,0.00,meteohub,2012-11-12 10:21:00,
2012-11-12 05:23:00,55.4,12.6,30.45,SE,135,0.0,0.0,18,0.00,,,0.00,meteohub,2012-11-12 10:23:00,
2012-11-12 05:25:00,55.4,12.6,30.45,SE,135,0.0,0.0,18,0.00,,,0.00,meteohub,2012-11-12 10:25:00,
2012-11-12 05:26:00,55.4,12.6,30.45,SE,135,0.0,2.0,18,0.00,,,0.00,meteohub,2012-11-12 10:26:00,
2012-11-12 05:27:00,55.4,12.6,30.45,SE,135,0.0,2.0,18,0.00,,,0.00,meteohub,2012-11-12 10:27:00,
2012-11-12 05:29:00,55.4,13.8,30.45,SE,135,0.0,2.0,19,0.00,,,0.00,meteohub,2012-11-12 10:29:00,
2012-11-12 05:31:00,55.6,14.0,30.45,South,180,0.0,7.0,19,0.00,,,0.00,meteohub,2012-11-12 10:31:00,
2012-11-12 05:32:00,55.6,12.7,30.45,SE,135,0.0,7.0,18,0.00,,,0.00,meteohub,2012-11-12 10:32:00,
2012-11-12 05:34:00,55.6,14.0,30.45,East,90,7.0,7.0,19,0.00,,,0.00,meteohub,2012-11-12 10:34:00,
2012-11-12 05:36:00,55.8,15.3,30.45,SE,135,4.0,8.0,20,0.00,,,0.00,meteohub,2012-11-12 10:36:00,
2012-11-12 05:37:00,55.8,15.3,30.45,East,90,0.0,8.0,20,0.00,,,0.00,meteohub,2012-11-12 10:37:00,
2012-11-12 05:38:00,55.8,15.3,30.45,East,90,0.0,8.0,20,0.00,,,0.00,meteohub,2012-11-12 10:38:00,
2012-11-12 05:42:00,55.8,15.3,30.45,East,90,3.0,8.0,20,0.00,,,0.00,meteohub,2012-11-12 10:42:00,
2012-11-12 05:43:00,55.8,15.3,30.45,SE,135,5.0,8.0,20,0.00,,,0.00,meteohub,2012-11-12 10:43:00,
2012-11-12 05:48:00,55.8,15.3,30.45,SE,135,0.0,8.0,20,0.00,,,0.00,meteohub,2012-11-12 10:48:00,
2012-11-12 05:49:00,55.8,15.3,30.45,SE,135,0.0,8.0,20,0.00,,,0.00,meteohub,2012-11-12 10:49:00,
2012-11-12 05:53:00,55.8,15.3,30.45,SE,135,0.0,8.0,20,0.00,,,0.00,meteohub,2012-11-12 10:53:00,
2012-11-12 05:54:00,55.8,15.3,30.44,South,180,0.0,8.0,20,0.00,,,0.00,meteohub,2012-11-12 10:54:00,
2012-11-12 05:59:00,55.8,16.3,30.45,South,180,0.0,8.0,21,0.00,,,0.00,meteohub,2012-11-12 10:59:00,
2012-11-12 06:05:00,55.8,16.3,30.45,SE,135,7.0,8.0,21,0.00,,,0.00,meteohub,2012-11-12 11:05:00,
2012-11-12 06:06:00,55.8,16.3,30.45,SE,135,7.0,7.0,21,0.00,,,0.00,meteohub,2012-11-12 11:06:00,
2012-11-12 06:10:00,55.6,17.2,30.44,East,90,7.0,7.0,22,0.00,,,0.00,meteohub,2012-11-12 11:10:00,
2012-11-12 06:11:00,55.6,17.2,30.44,SE,135,0.0,7.0,22,0.00,,,0.00,meteohub,2012-11-12 11:11:00,
2012-11-12 06:16:00,55.6,17.2,30.44,SE,135,0.0,10.0,22,0.00,,,0.00,meteohub,2012-11-12 11:16:00,
2012-11-12 06:17:00,55.6,17.2,30.44,SE,135,0.0,10.0,22,0.00,,,0.00,meteohub,2012-11-12 11:17:00,
2012-11-12 06:21:00,55.8,17.4,30.44,SE,135,0.0,10.0,22,0.00,,,0.00,meteohub,2012-11-12 11:21:00,
2012-11-12 06:22:00,55.6,17.2,30.44,SE,135,0.0,10.0,22,0.00,,,0.00,meteohub,2012-11-12 11:22:00,
2012-11-12 06:23:00,55.6,17.2,30.44,South,180,4.0,10.0,22,0.00,,,0.00,meteohub,2012-11-12 11:23:00,
2012-11-12 06:27:00,55.6,18.3,30.44,South,180,0.0,10.0,23,0.00,,,0.00,meteohub,2012-11-12 11:27:00,
2012-11-12 06:28:00,55.8,18.5,30.44,SE,135,2.0,10.0,23,0.00,,,0.00,meteohub,2012-11-12 11:28:00,
2012-11-12 06:29:00,55.8,18.5,30.44,SE,135,0.0,10.0,23,0.00,,,0.00,meteohub,2012-11-12 11:29:00,
2012-11-12 06:32:00,55.8,17.4,30.44,SE,135,0.0,4.0,22,0.00,,,0.00,meteohub,2012-11-12 11:32:00,
2012-11-12 06:33:00,55.8,18.5,30.44,South,180,0.0,4.0,23,0.00,,,0.00,meteohub,2012-11-12 11:33:00,
2012-11-12 06:34:00,55.8,18.5,30.44,SE,135,0.0,4.0,23,0.00,,,0.00,meteohub,2012-11-12 11:34:00,
2012-11-12 06:38:00,55.8,19.6,30.44,SE,135,4.0,4.0,24,0.00,,,0.00,meteohub,2012-11-12 11:38:00,
2012-11-12 06:39:00,55.8,19.6,30.44,SE,135,4.0,4.0,24,0.00,,,0.00,meteohub,2012-11-12 11:39:00,
2012-11-12 06:44:00,55.9,19.6,30.45,SE,135,0.0,4.0,24,0.00,,,0.00,meteohub,2012-11-12 11:44:00,
2012-11-12 06:45:00,55.9,19.6,30.44,SE,135,1.0,8.0,24,0.00,,,0.00,meteohub,2012-11-12 11:45:00,
2012-11-12 06:49:00,55.9,19.6,30.44,East,90,0.0,8.0,24,0.00,,,0.00,meteohub,2012-11-12 11:49:00,
2012-11-12 06:50:00,55.9,19.6,30.44,SE,135,0.0,8.0,24,0.00,,,0.00,meteohub,2012-11-12 11:50:00,
2012-11-12 06:51:00,55.9,19.6,30.44,South,180,0.0,8.0,24,0.00,,,0.00,meteohub,2012-11-12 11:51:00,
2012-11-12 06:54:00,55.9,19.6,30.44,South,180,0.0,8.0,24,0.00,,,0.00,meteohub,2012-11-12 11:54:00,
2012-11-12 06:55:00,55.9,19.6,30.44,SE,135,0.0,8.0,24,0.00,,,0.00,meteohub,2012-11-12 11:55:00,
2012-11-12 06:56:00,55.9,19.6,30.44,ESE,113,0.0,8.0,24,0.00,,,0.00,meteohub,2012-11-12 11:56:00,
2012-11-12 06:59:00,55.9,20.7,30.44,NE,45,0.0,8.0,25,0.00,,,0.00,meteohub,2012-11-12 11:59:00,
2012-11-12 07:00:00,55.9,20.7,30.44,NE,45,0.0,1.0,25,0.00,,,0.00,meteohub,2012-11-12 12:00:00,
2012-11-12 07:02:00,55.9,20.7,30.44,NE,45,0.0,1.0,25,0.00,,,0.00,meteohub,2012-11-12 12:02:00,
2012-11-12 07:05:00,55.9,20.7,30.44,NE,45,0.0,0.0,25,0.00,,,0.00,meteohub,2012-11-12 12:05:00,
2012-11-12 07:07:00,56.1,19.8,30.44,South,180,0.0,0.0,24,0.00,,,0.00,meteohub,2012-11-12 12:07:00,
2012-11-12 07:10:00,56.1,19.8,30.44,SE,135,0.0,0.0,24,0.00,,,0.00,meteohub,2012-11-12 12:10:00,
2012-11-12 07:13:00,56.1,19.8,30.44,NE,45,0.0,0.0,24,0.00,,,0.00,meteohub,2012-11-12 12:13:00,
2012-11-12 07:15:00,56.1,19.8,30.44,SE,135,4.0,0.0,24,0.00,,,0.00,meteohub,2012-11-12 12:15:00,
2012-11-12 07:16:00,56.1,19.8,30.44,East,90,4.0,8.0,24,0.00,,,0.00,meteohub,2012-11-12 12:16:00,
2012-11-12 07:18:00,56.1,19.8,30.44,East,90,0.0,8.0,24,0.00,,,0.00,meteohub,2012-11-12 12:18:00,
2012-11-12 07:20:00,56.1,19.8,30.44,East,90,0.0,8.0,24,0.00,,,0.00,meteohub,2012-11-12 12:20:00,
2012-11-12 07:21:00,56.1,19.8,30.44,SE,135,0.0,8.0,24,0.00,,,0.00,meteohub,2012-11-12 12:21:00,
2012-11-12 07:25:00,56.1,19.8,30.44,South,180,4.0,8.0,24,0.00,,,0.00,meteohub,2012-11-12 12:25:00,
2012-11-12 07:26:00,56.1,19.8,30.44,East,90,4.0,8.0,24,0.00,,,0.00,meteohub,2012-11-12 12:26:00,
2012-11-12 07:27:00,56.1,19.8,30.44,NNE,23,11.0,11.0,24,0.00,,,0.00,meteohub,2012-11-12 12:27:00,
2012-11-12 07:30:00,56.3,19.0,30.45,SE,135,0.0,11.0,23,0.00,,,0.00,meteohub,2012-11-12 12:30:00,
2012-11-12 07:33:00,56.3,19.0,30.45,SE,135,0.0,11.0,23,0.00,,,0.00,meteohub,2012-11-12 12:33:00,
2012-11-12 07:34:00,56.3,19.0,30.44,SE,135,0.0,11.0,23,0.00,,,0.00,meteohub,2012-11-12 12:34:00,
2012-11-12 07:36:00,56.3,19.0,30.44,SE,135,7.0,11.0,23,0.00,,,0.00,meteohub,2012-11-12 12:36:00,
2012-11-12 07:38:00,56.3,19.0,30.44,SE,135,0.0,11.0,23,0.00,,,0.00,meteohub,2012-11-12 12:38:00,
2012-11-12 07:39:00,56.3,19.0,30.43,East,90,0.0,11.0,23,0.00,,,0.00,meteohub,2012-11-12 12:39:00,
2012-11-12 07:42:00,56.3,19.9,30.44,SE,135,10.0,11.0,24,0.00,,,0.00,meteohub,2012-11-12 12:42:00,
2012-11-12 07:44:00,56.5,20.1,30.44,East,90,8.0,11.0,24,0.00,,,0.00,meteohub,2012-11-12 12:44:00,
2012-11-12 07:48:00,56.5,20.1,30.44,East,90,7.0,10.0,24,0.00,,,0.00,meteohub,2012-11-12 12:48:00,
2012-11-12 07:49:00,56.5,20.1,30.43,East,90,6.0,10.0,24,0.00,,,0.00,meteohub,2012-11-12 12:49:00,
2012-11-12 07:50:00,56.5,20.1,30.43,East,90,5.0,10.0,24,0.00,,,0.00,meteohub,2012-11-12 12:50:00,
2012-11-12 07:53:00,56.5,21.0,30.44,East,90,0.0,11.0,25,0.00,,,0.00,meteohub,2012-11-12 12:53:00,
2012-11-12 07:54:00,56.5,21.0,30.44,SE,135,0.0,11.0,25,0.00,,,0.00,meteohub,2012-11-12 12:54:00,
2012-11-12 07:55:00,56.5,21.0,30.43,SE,135,0.0,11.0,25,0.00,,,0.00,meteohub,2012-11-12 12:55:00,
2012-11-12 07:58:00,56.5,21.0,30.44,SE,135,0.0,11.0,25,0.00,,,0.00,meteohub,2012-11-12 12:58:00,
2012-11-12 08:00:00,56.5,21.0,30.44,SE,135,0.0,11.0,25,0.00,,,0.00,meteohub,2012-11-12 13:00:00,
2012-11-12 08:01:00,56.5,21.0,30.44,SE,135,0.0,11.0,25,0.00,,,0.00,meteohub,2012-11-12 13:01:00,
2012-11-12 08:04:00,56.5,21.0,30.44,SE,135,0.0,11.0,25,0.00,,,0.00,meteohub,2012-11-12 13:04:00,
2012-11-12 08:06:00,56.5,21.0,30.44,SE,135,0.0,5.0,25,0.00,,,0.00,meteohub,2012-11-12 13:06:00,
2012-11-12 08:07:00,56.5,21.9,30.44,SE,135,6.0,6.0,26,0.00,,,0.00,meteohub,2012-11-12 13:07:00,
2012-11-12 08:09:00,56.5,21.9,30.44,South,180,1.0,5.0,26,0.00,,,0.00,meteohub,2012-11-12 13:09:00,
2012-11-12 08:11:00,56.5,21.9,30.44,SE,135,0.0,6.0,26,0.00,,,0.00,meteohub,2012-11-12 13:11:00,
2012-11-12 08:12:00,56.5,22.8,30.43,East,90,0.0,6.0,27,0.00,,,0.00,meteohub,2012-11-12 13:12:00,
2012-11-12 08:14:00,56.7,22.1,30.44,East,90,0.0,6.0,26,0.00,,,0.00,meteohub,2012-11-12 13:14:00,
2012-11-12 08:18:00,56.8,22.3,30.44,SE,135,0.0,6.0,26,0.00,,,0.00,meteohub,2012-11-12 13:18:00,
2012-11-12 08:20:00,56.8,22.3,30.44,SE,135,6.0,6.0,26,0.00,,,0.00,meteohub,2012-11-12 13:20:00,
2012-11-12 08:21:00,57.0,22.5,30.43,SE,135,0.0,6.0,26,0.00,,,0.00,meteohub,2012-11-12 13:21:00,
2012-11-12 08:23:00,57.0,22.5,30.43,SE,135,0.0,6.0,26,0.00,,,0.00,meteohub,2012-11-12 13:23:00,
2012-11-12 08:25:00,57.0,22.5,30.43,SE,135,0.0,6.0,26,0.00,,,0.00,meteohub,2012-11-12 13:25:00,
2012-11-12 08:27:00,57.2,22.6,30.44,South,180,0.0,6.0,26,0.00,,,0.00,meteohub,2012-11-12 13:27:00,
2012-11-12 08:28:00,57.2,22.6,30.44,South,180,0.0,6.0,26,0.00,,,0.00,meteohub,2012-11-12 13:28:00,
2012-11-12 08:31:00,57.4,22.8,30.44,SE,135,0.0,6.0,26,0.00,,,0.00,meteohub,2012-11-12 13:31:00,
2012-11-12 08:32:00,57.4,22.8,30.45,SE,135,0.0,6.0,26,0.00,,,0.00,meteohub,2012-11-12 13:32:00,
2012-11-12 08:33:00,57.4,22.8,30.45,SE,135,4.0,6.0,26,0.00,,,0.00,meteohub,2012-11-12 13:33:00,
2012-11-12 08:36:00,57.7,23.0,30.44,East,90,7.0,7.0,26,0.00,,,0.00,meteohub,2012-11-12 13:36:00,
2012-11-12 08:38:00,57.7,23.0,30.44,South,180,6.0,6.0,26,0.00,,,0.00,meteohub,2012-11-12 13:38:00,
2012-11-12 08:39:00,57.9,23.2,30.44,SE,135,5.0,6.0,26,0.00,,,0.00,meteohub,2012-11-12 13:39:00,
2012-11-12 08:42:00,58.1,22.5,30.44,SE,135,0.0,8.0,25,0.00,,,0.00,meteohub,2012-11-12 13:42:00,
2012-11-12 08:43:00,58.3,22.6,30.45,South,180,5.0,8.0,25,0.00,,,0.00,meteohub,2012-11-12 13:43:00,
2012-11-12 08:44:00,58.3,22.6,30.45,South,180,5.0,8.0,25,0.00,,,0.00,meteohub,2012-11-12 13:44:00,
2012-11-12 08:48:00,58.6,21.9,30.44,SE,135,4.0,8.0,24,0.00,,,0.00,meteohub,2012-11-12 13:48:00,
2012-11-12 08:49:00,58.6,21.9,30.44,South,180,5.0,8.0,24,0.00,,,0.00,meteohub,2012-11-12 13:49:00,
2012-11-12 08:50:00,58.8,22.1,30.44,SE,135,0.0,8.0,24,0.00,,,0.00,meteohub,2012-11-12 13:50:00,
2012-11-12 08:54:00,59.2,21.4,30.44,SE,135,0.0,8.0,23,0.00,,,0.00,meteohub,2012-11-12 13:54:00,
2012-11-12 08:56:00,59.2,21.4,30.44,SE,135,0.0,6.0,23,0.00,,,0.00,meteohub,2012-11-12 13:56:00,
2012-11-12 08:59:00,59.2,21.4,30.43,East,90,0.0,6.0,23,0.00,,,0.00,meteohub,2012-11-12 13:59:00,
2012-11-12 09:00:00,59.2,21.4,30.43,East,90,0.0,6.0,23,0.00,,,0.00,meteohub,2012-11-12 14:00:00,
2012-11-12 09:01:00,59.2,21.4,30.43,East,90,0.0,6.0,23,0.00,,,0.00,meteohub,2012-11-12 14:01:00,
2012-11-12 09:05:00,59.2,21.4,30.43,East,90,0.0,6.0,23,0.00,,,0.00,meteohub,2012-11-12 14:05:00,
2012-11-12 09:06:00,59.2,21.4,30.43,East,90,0.0,6.0,23,0.00,,,0.00,meteohub,2012-11-12 14:06:00,
2012-11-12 09:08:00,58.6,21.9,30.43,East,90,6.0,6.0,24,0.00,,,0.00,meteohub,2012-11-12 14:08:00,
2012-11-12 09:10:00,58.6,21.9,30.43,SSE,158,1.0,7.0,24,0.00,,,0.00,meteohub,2012-11-12 14:10:00,
2012-11-12 09:11:00,58.8,22.1,30.43,SE,135,0.0,7.0,24,0.00,,,0.00,meteohub,2012-11-12 14:11:00,
2012-11-12 09:13:00,59.2,22.5,30.43,SE,135,4.0,7.0,24,0.00,,,0.00,meteohub,2012-11-12 14:13:00,
2012-11-12 09:16:00,59.5,21.7,30.43,SE,135,0.0,7.0,23,0.00,,,0.00,meteohub,2012-11-12 14:16:00,
2012-11-12 09:17:00,59.5,21.7,30.43,SE,135,0.0,7.0,23,0.00,,,0.00,meteohub,2012-11-12 14:17:00,
2012-11-12 09:19:00,59.5,20.7,30.43,SE,135,0.0,7.0,22,0.00,,,0.00,meteohub,2012-11-12 14:19:00,
2012-11-12 09:21:00,59.7,20.8,30.43,SE,135,0.0,7.0,22,0.00,,,0.00,meteohub,2012-11-12 14:21:00,
2012-11-12 09:22:00,59.7,20.8,30.43,SE,135,0.0,7.0,22,0.00,,,0.00,meteohub,2012-11-12 14:22:00,
2012-11-12 09:26:00,59.9,21.0,30.43,SE,135,0.0,4.0,22,0.00,,,0.00,meteohub,2012-11-12 14:26:00,
2012-11-12 09:27:00,59.9,21.0,30.43,SE,135,8.0,8.0,22,0.00,,,0.00,meteohub,2012-11-12 14:27:00,
2012-11-12 09:28:00,59.7,20.8,30.43,SE,135,0.0,4.0,22,0.00,,,0.00,meteohub,2012-11-12 14:28:00,
2012-11-12 09:29:00,59.7,20.8,30.43,South,180,0.0,4.0,22,0.00,,,0.00,meteohub,2012-11-12 14:29:00,
2012-11-12 09:32:00,59.5,21.7,30.43,SE,135,8.0,8.0,23,0.00,,,0.00,meteohub,2012-11-12 14:32:00,
2012-11-12 09:33:00,59.5,21.7,30.43,SE,135,8.0,8.0,23,0.00,,,0.00,meteohub,2012-11-12 14:33:00,
2012-11-12 09:35:00,59.5,21.7,30.43,South,180,0.0,8.0,23,0.00,,,0.00,meteohub,2012-11-12 14:35:00,
2012-11-12 09:37:00,59.5,21.7,30.43,SE,135,0.0,8.0,23,0.00,,,0.00,meteohub,2012-11-12 14:37:00,
2012-11-12 09:38:00,59.7,21.9,30.43,East,90,0.0,8.0,23,0.00,,,0.00,meteohub,2012-11-12 14:38:00,
2012-11-12 09:41:00,60.3,22.3,30.43,SE,135,0.0,8.0,23,0.00,,,0.00,meteohub,2012-11-12 14:41:00,
2012-11-12 09:42:00,60.4,21.4,30.43,SE,135,0.0,8.0,22,0.00,,,0.00,meteohub,2012-11-12 14:42:00,
2012-11-12 09:44:00,60.8,19.4,30.43,South,180,0.0,8.0,20,0.00,,,0.00,meteohub,2012-11-12 14:44:00,
2012-11-12 09:46:00,61.0,19.6,30.43,SE,135,8.0,8.0,20,0.00,,,0.00,meteohub,2012-11-12 14:46:00,
2012-11-12 09:47:00,61.0,19.6,30.43,SE,135,8.0,8.0,20,0.00,,,0.00,meteohub,2012-11-12 14:47:00,
2012-11-12 09:48:00,61.0,19.6,30.43,SE,135,8.0,8.0,20,0.00,,,0.00,meteohub,2012-11-12 14:48:00,
2012-11-12 09:50:00,61.3,19.9,30.43,South,180,0.0,8.0,20,0.00,,,0.00,meteohub,2012-11-12 14:50:00,
2012-11-12 09:52:00,61.5,18.9,30.43,South,180,0.0,12.0,19,0.00,,,0.00,meteohub,2012-11-12 14:52:00,
2012-11-12 09:54:00,61.7,19.0,30.43,East,90,0.0,12.0,19,0.00,,,0.00,meteohub,2012-11-12 14:54:00,
2012-11-12 09:55:00,61.7,17.8,30.42,SE,135,0.0,12.0,18,0.00,,,0.00,meteohub,2012-11-12 14:55:00,
2012-11-12 09:57:00,61.9,19.2,30.42,SE,135,0.0,12.0,19,0.00,,,0.00,meteohub,2012-11-12 14:57:00,
2012-11-12 09:59:00,62.1,18.0,30.43,SE,135,0.0,12.0,18,0.00,,,0.00,meteohub,2012-11-12 14:59:00,
2012-11-12 10:01:00,62.1,18.0,30.43,SE,135,0.0,12.0,18,0.00,,,0.00,meteohub,2012-11-12 15:01:00,
2012-11-12 10:02:00,62.1,18.0,30.43,SE,135,0.0,12.0,18,0.00,,,0.00,meteohub,2012-11-12 15:02:00,
2012-11-12 10:04:00,62.1,18.0,30.42,SE,135,0.0,12.0,18,0.00,,,0.00,meteohub,2012-11-12 15:04:00,
2012-11-12 10:05:00,62.1,18.0,30.43,SE,135,0.0,12.0,18,0.00,,,0.00,meteohub,2012-11-12 15:05:00,
2012-11-12 10:06:00,62.1,18.0,30.42,SE,135,0.0,7.0,18,0.00,,,0.00,meteohub,2012-11-12 15:06:00,
2012-11-12 10:08:00,62.8,16.0,30.42,South,180,0.0,7.0,16,0.00,,,0.00,meteohub,2012-11-12 15:08:00,
2012-11-12 10:09:00,63.0,16.0,30.42,SE,135,0.0,7.0,16,0.00,,,0.00,meteohub,2012-11-12 15:09:00,
2012-11-12 10:11:00,63.0,14.5,30.42,East,90,0.0,7.0,15,0.00,,,0.00,meteohub,2012-11-12 15:11:00,
2012-11-12 10:14:00,63.0,16.0,30.43,SE,135,7.0,7.0,16,0.00,,,0.00,meteohub,2012-11-12 15:14:00,
2012-11-12 10:17:00,63.1,14.7,30.43,SE,135,0.0,13.0,15,0.00,,,0.00,meteohub,2012-11-12 15:17:00,
2012-11-12 10:19:00,63.5,15.1,30.43,NE,45,7.0,13.0,15,0.00,,,0.00,meteohub,2012-11-12 15:19:00,
2012-11-12 10:22:00,63.7,13.6,30.42,SE,135,0.0,13.0,14,0.00,,,0.00,meteohub,2012-11-12 15:22:00,
2012-11-12 10:24:00,63.9,13.6,30.41,SE,135,0.0,13.0,14,0.00,,,0.00,meteohub,2012-11-12 15:24:00,
2012-11-12 10:25:00,63.9,13.6,30.41,SE,135,0.0,13.0,14,0.00,,,0.00,meteohub,2012-11-12 15:25:00,
2012-11-12 10:28:00,63.9,13.6,30.40,East,90,7.0,13.0,14,0.00,,,0.00,meteohub,2012-11-12 15:28:00,
2012-11-12 10:30:00,63.9,13.6,30.41,South,180,13.0,15.0,14,0.00,,,0.00,meteohub,2012-11-12 15:30:00,
2012-11-12 10:34:00,63.9,12.0,30.41,South,180,11.0,15.0,13,0.00,,,0.00,meteohub,2012-11-12 15:34:00,
2012-11-12 10:36:00,63.7,13.6,30.41,South,180,2.0,15.0,14,0.00,,,0.00,meteohub,2012-11-12 15:36:00,
2012-11-12 10:39:00,63.9,13.6,30.42,South,180,8.0,15.0,14,0.00,,,0.00,meteohub,2012-11-12 15:39:00,
2012-11-12 10:40:00,64.0,12.2,30.41,South,180,6.0,15.0,13,0.00,,,0.00,meteohub,2012-11-12 15:40:00,
2012-11-12 10:41:00,64.2,12.4,30.41,East,90,0.0,15.0,13,0.00,,,0.00,meteohub,2012-11-12 15:41:00,
2012-11-12 10:42:00,64.6,10.8,30.42,SE,135,0.0,15.0,12,0.00,,,0.00,meteohub,2012-11-12 15:42:00,
2012-11-12 10:45:00,64.6,10.8,30.42,South,180,7.0,15.0,12,0.00,,,0.00,meteohub,2012-11-12 15:45:00,
2012-11-12 10:47:00,64.6,10.8,30.42,NE,45,6.0,13.0,12,0.00,,,0.00,meteohub,2012-11-12 15:47:00,
2012-11-12 10:48:00,64.6,10.8,30.42,SE,135,10.0,13.0,12,0.00,,,0.00,meteohub,2012-11-12 15:48:00,
2012-11-12 10:50:00,64.8,10.9,30.42,SE,135,6.0,13.0,12,0.00,,,0.00,meteohub,2012-11-12 15:50:00,
2012-11-12 10:53:00,65.1,9.3,30.41,SE,135,0.0,15.0,11,0.00,,,0.00,meteohub,2012-11-12 15:53:00,
2012-11-12 10:55:00,65.5,7.5,30.42,South,180,0.0,15.0,10,0.00,,,0.00,meteohub,2012-11-12 15:55:00,
2012-11-12 10:56:00,65.5,7.5,30.42,South,180,0.0,15.0,10,0.00,,,0.00,meteohub,2012-11-12 15:56:00,
2012-11-12 10:58:00,65.7,7.5,30.41,SE,135,8.0,15.0,10,0.00,,,0.00,meteohub,2012-11-12 15:58:00,
2012-11-12 11:01:00,65.5,7.5,30.42,East,90,0.0,15.0,10,0.00,,,0.00,meteohub,2012-11-12 16:01:00,
2012-11-12 11:03:00,65.5,7.5,30.42,East,90,0.0,15.0,10,0.00,,,0.00,meteohub,2012-11-12 16:03:00,
2012-11-12 11:04:00,65.5,7.5,30.42,East,90,0.0,15.0,10,0.00,,,0.00,meteohub,2012-11-12 16:04:00,
2012-11-12 11:06:00,65.5,7.5,30.41,East,90,0.0,10.0,10,0.00,,,0.00,meteohub,2012-11-12 16:06:00,
2012-11-12 11:09:00,65.7,7.5,30.41,South,180,4.0,10.0,10,0.00,,,0.00,meteohub,2012-11-12 16:09:00,
2012-11-12 11:10:00,65.7,7.5,30.41,SE,135,0.0,8.0,10,0.00,,,0.00,meteohub,2012-11-12 16:10:00,
2012-11-12 11:11:00,65.3,7.3,30.41,SE,135,0.0,8.0,10,0.00,,,0.00,meteohub,2012-11-12 16:11:00,
2012-11-12 11:16:00,64.6,10.8,30.40,West,270,0.0,4.0,12,0.00,,,0.00,meteohub,2012-11-12 16:16:00,
2012-11-12 11:17:00,64.6,8.8,30.41,NE,45,5.0,5.0,11,0.00,,,0.00,meteohub,2012-11-12 16:17:00,
2012-11-12 11:21:00,64.8,9.0,30.41,SE,135,0.0,6.0,11,0.00,,,0.00,meteohub,2012-11-12 16:21:00,
2012-11-12 11:22:00,64.8,9.0,30.41,WSW,248,0.0,6.0,11,0.00,,,0.00,meteohub,2012-11-12 16:22:00,
2012-11-12 11:26:00,64.2,8.6,30.41,NE,45,7.0,17.0,11,0.00,,,0.00,meteohub,2012-11-12 16:26:00,
2012-11-12 11:27:00,63.9,10.2,30.41,South,180,0.0,17.0,12,0.00,,,0.00,meteohub,2012-11-12 16:27:00,
2012-11-12 11:28:00,63.9,10.2,30.41,South,180,0.0,17.0,12,0.00,,,0.00,meteohub,2012-11-12 16:28:00,
2012-11-12 11:31:00,63.3,11.7,30.40,SE,135,14.0,17.0,13,0.00,,,0.00,meteohub,2012-11-12 16:31:00,
2012-11-12 11:33:00,63.1,13.1,30.41,South,180,5.0,17.0,14,0.00,,,0.00,meteohub,2012-11-12 16:33:00,
2012-11-12 11:38:00,62.6,14.4,30.40,East,90,4.0,24.0,15,0.00,,,0.00,meteohub,2012-11-12 16:38:00,
2012-11-12 11:39:00,62.6,14.4,30.40,East,90,4.0,24.0,15,0.00,,,0.00,meteohub,2012-11-12 16:39:00,
2012-11-12 11:43:00,62.4,15.6,30.40,SE,135,10.0,24.0,16,0.00,,,0.00,meteohub,2012-11-12 16:43:00,
2012-11-12 11:44:00,62.4,15.6,30.40,SE,135,6.0,24.0,16,0.00,,,0.00,meteohub,2012-11-12 16:44:00,
2012-11-12 11:49:00,62.4,15.6,30.39,SE,135,17.0,24.0,16,0.00,,,0.00,meteohub,2012-11-12 16:49:00,
2012-11-12 11:50:00,62.4,15.6,30.39,East,90,14.0,24.0,16,0.00,,,0.00,meteohub,2012-11-12 16:50:00,
2012-11-12 11:54:00,62.2,15.4,30.39,SE,135,2.0,18.0,16,0.00,,,0.00,meteohub,2012-11-12 16:54:00,
2012-11-12 11:55:00,62.2,15.4,30.39,SE,135,2.0,18.0,16,0.00,,,0.00,meteohub,2012-11-12 16:55:00,
2012-11-12 11:57:00,62.2,15.4,30.38,SE,135,4.0,18.0,16,0.00,,,0.00,meteohub,2012-11-12 16:57:00,
2012-11-12 11:59:00,62.2,15.4,30.38,East,90,0.0,18.0,16,0.00,,,0.00,meteohub,2012-11-12 16:59:00,
2012-11-12 12:00:00,62.2,15.4,30.38,East,90,0.0,18.0,16,0.00,,,0.00,meteohub,2012-11-12 17:00:00,
2012-11-12 12:02:00,62.4,15.6,30.38,South,180,11.0,18.0,16,0.00,,,0.00,meteohub,2012-11-12 17:02:00,
2012-11-12 12:03:00,62.4,15.6,30.38,South,180,10.0,18.0,16,0.00,,,0.00,meteohub,2012-11-12 17:03:00,
2012-11-12 12:05:00,62.6,15.8,30.38,WSW,248,9.0,18.0,16,0.00,,,0.00,meteohub,2012-11-12 17:05:00,
2012-11-12 12:07:00,63.0,14.5,30.38,South,180,11.0,11.0,15,0.00,,,0.00,meteohub,2012-11-12 17:07:00,
2012-11-12 12:09:00,63.3,13.3,30.38,East,90,7.0,11.0,14,0.00,,,0.00,meteohub,2012-11-12 17:09:00,
2012-11-12 12:10:00,63.5,13.5,30.37,SE,135,6.0,12.0,14,0.00,,,0.00,meteohub,2012-11-12 17:10:00,
2012-11-12 12:11:00,63.5,13.5,30.37,East,90,0.0,12.0,14,0.00,,,0.00,meteohub,2012-11-12 17:11:00,
2012-11-12 12:12:00,63.5,13.5,30.37,East,90,6.0,12.0,14,0.00,,,0.00,meteohub,2012-11-12 17:12:00,
2012-11-12 12:14:00,63.7,11.8,30.37,SE,135,6.0,12.0,13,0.00,,,0.00,meteohub,2012-11-12 17:14:00,
2012-11-12 12:15:00,63.7,11.8,30.37,South,180,16.0,16.0,13,0.00,,,0.00,meteohub,2012-11-12 17:15:00,
2012-11-12 12:17:00,64.0,10.4,30.37,SE,135,12.0,15.0,12,0.00,,,0.00,meteohub,2012-11-12 17:17:00,
2012-11-12 12:18:00,64.2,10.6,30.36,East,90,1.0,15.0,12,0.00,,,0.00,meteohub,2012-11-12 17:18:00,
2012-11-12 12:19:00,64.6,8.8,30.36,East,90,0.0,15.0,11,0.00,,,0.00,meteohub,2012-11-12 17:19:00,
2012-11-12 12:20:00,64.8,9.0,30.36,East,90,1.0,16.0,11,0.00,,,0.00,meteohub,2012-11-12 17:20:00,
2012-11-12 12:22:00,64.9,9.1,30.36,East,90,7.0,16.0,11,0.00,,,0.00,meteohub,2012-11-12 17:22:00,
2012-11-12 12:23:00,65.3,65.3,30.36,South,180,0.0,16.0,0,0.00,,,0.00,meteohub,2012-11-12 17:23:00,
2012-11-12 12:24:00,65.3,65.3,30.35,SE,135,0.0,16.0,0,0.00,,,0.00,meteohub,2012-11-12 17:24:00,
2012-11-12 12:26:00,65.5,65.5,30.35,East,90,0.0,16.0,0,0.00,,,0.00,meteohub,2012-11-12 17:26:00,
2012-11-12 12:28:00,65.5,65.5,30.35,SE,135,12.0,16.0,0,0.00,,,0.00,meteohub,2012-11-12 17:28:00,
2012-11-12 12:29:00,65.3,65.3,30.35,South,180,4.0,16.0,0,0.00,,,0.00,meteohub,2012-11-12 17:29:00,
2012-11-12 12:30:00,65.3,65.3,30.35,South,180,4.0,16.0,0,0.00,,,0.00,meteohub,2012-11-12 17:30:00,
2012-11-12 12:31:00,65.3,65.3,30.35,SSE,158,0.0,16.0,0,0.00,,,0.00,meteohub,2012-11-12 17:31:00,
2012-11-12 12:35:00,66.2,66.2,30.35,SE,135,12.0,16.0,0,0.00,,,0.00,meteohub,2012-11-12 17:35:00,
2012-11-12 12:36:00,66.4,66.4,30.35,East,90,6.0,12.0,0,0.00,,,0.00,meteohub,2012-11-12 17:36:00,
2012-11-12 12:37:00,66.7,66.7,30.34,SE,135,8.0,12.0,0,0.00,,,0.00,meteohub,2012-11-12 17:37:00,
2012-11-12 12:40:00,67.5,67.5,30.35,South,180,9.0,12.0,0,0.00,,,0.00,meteohub,2012-11-12 17:40:00,
2012-11-12 12:41:00,67.6,67.6,30.34,SE,135,0.0,14.0,0,0.00,,,0.00,meteohub,2012-11-12 17:41:00,
2012-11-12 12:42:00,67.6,67.6,30.34,SE,135,0.0,14.0,0,0.00,,,0.00,meteohub,2012-11-12 17:42:00,
2012-11-12 12:45:00,67.6,67.6,30.34,SE,135,14.0,14.0,0,0.00,,,0.00,meteohub,2012-11-12 17:45:00,
2012-11-12 12:46:00,67.6,67.6,30.34,SE,135,14.0,14.0,0,0.00,,,0.00,meteohub,2012-11-12 17:46:00,
2012-11-12 12:47:00,67.3,67.3,30.33,SE,135,9.0,14.0,0,0.00,,,0.00,meteohub,2012-11-12 17:47:00,
2012-11-12 12:51:00,68.0,68.0,30.33,SE,135,11.0,14.0,0,0.00,,,0.00,meteohub,2012-11-12 17:51:00,
2012-11-12 12:52:00,67.8,67.8,30.32,SE,135,6.0,14.0,0,0.00,,,0.00,meteohub,2012-11-12 17:52:00,
2012-11-12 12:56:00,67.1,67.1,30.32,North,0,5.0,15.0,0,0.00,,,0.00,meteohub,2012-11-12 17:56:00,
2012-11-12 12:57:00,67.1,67.1,30.32,North,0,5.0,15.0,0,0.00,,,0.00,meteohub,2012-11-12 17:57:00,
2012-11-12 12:58:00,66.9,66.9,30.32,SE,135,7.0,15.0,0,0.00,,,0.00,meteohub,2012-11-12 17:58:00,
2012-11-12 13:02:00,66.2,66.2,30.32,WSW,248,6.0,15.0,0,0.00,,,0.00,meteohub,2012-11-12 18:02:00,
2012-11-12 13:03:00,66.2,66.2,30.32,South,180,8.0,15.0,0,0.00,,,0.00,meteohub,2012-11-12 18:03:00,
2012-11-12 13:07:00,66.0,66.0,30.31,SE,135,8.0,15.0,0,0.00,,,0.00,meteohub,2012-11-12 18:07:00,
2012-11-12 13:09:00,65.8,65.8,30.30,SE,135,7.0,15.0,0,0.00,,,0.00,meteohub,2012-11-12 18:09:00,
2012-11-12 13:13:00,65.8,65.8,30.30,WSW,248,12.0,12.0,0,0.00,,,0.00,meteohub,2012-11-12 18:13:00,
2012-11-12 13:14:00,65.8,65.8,30.31,South,180,9.0,11.0,0,0.00,,,0.00,meteohub,2012-11-12 18:14:00,
2012-11-12 13:15:00,66.0,66.0,30.30,East,90,14.0,14.0,0,0.00,,,0.00,meteohub,2012-11-12 18:15:00,
2012-11-12 13:19:00,66.6,66.6,30.30,SE,135,5.0,14.0,0,0.00,,,0.00,meteohub,2012-11-12 18:19:00,
2012-11-12 13:20:00,66.9,66.9,30.30,WSW,248,7.0,14.0,0,0.00,,,0.00,meteohub,2012-11-12 18:20:00,
2012-11-12 13:25:00,68.4,68.4,30.30,South,180,10.0,14.0,0,0.00,,,0.00,meteohub,2012-11-12 18:25:00,
2012-11-12 13:26:00,68.4,68.4,30.30,NNE,23,8.0,14.0,0,0.00,,,0.00,meteohub,2012-11-12 18:26:00,
2012-11-12 13:30:00,69.6,69.6,30.30,SE,135,8.0,15.0,0,0.00,,,0.00,meteohub,2012-11-12 18:30:00,
2012-11-12 13:31:00,69.6,69.6,30.30,SE,135,8.0,15.0,0,0.00,,,0.00,meteohub,2012-11-12 18:31:00,
2012-11-12 13:36:00,69.6,69.6,30.30,East,90,10.0,15.0,0,0.00,,,0.00,meteohub,2012-11-12 18:36:00,
2012-11-12 13:37:00,69.6,69.6,30.30,East,90,10.0,15.0,0,0.00,,,0.00,meteohub,2012-11-12 18:37:00,
2012-11-12 13:41:00,69.4,69.4,30.29,South,180,14.0,15.0,0,0.00,,,0.00,meteohub,2012-11-12 18:41:00,
2012-11-12 13:42:00,69.6,69.6,30.29,South,180,5.0,15.0,0,0.00,,,0.00,meteohub,2012-11-12 18:42:00,
2012-11-12 13:46:00,69.8,69.8,30.29,East,90,8.0,15.0,0,0.00,,,0.00,meteohub,2012-11-12 18:46:00,
2012-11-12 13:47:00,69.8,69.8,30.29,East,90,8.0,15.0,0,0.00,,,0.00,meteohub,2012-11-12 18:47:00,
2012-11-12 13:50:00,69.6,69.6,30.28,South,180,10.0,15.0,0,0.00,,,0.00,meteohub,2012-11-12 18:50:00,
2012-11-12 13:52:00,69.4,69.4,30.28,South,180,8.0,15.0,0,0.00,,,0.00,meteohub,2012-11-12 18:52:00,
2012-11-12 13:53:00,69.6,69.6,30.28,East,90,10.0,15.0,0,0.00,,,0.00,meteohub,2012-11-12 18:53:00,
2012-11-12 13:56:00,69.8,69.8,30.27,SE,135,5.0,16.0,0,0.00,,,0.00,meteohub,2012-11-12 18:56:00,
2012-11-12 13:57:00,70.0,70.0,30.27,SE,135,8.0,16.0,0,0.00,,,0.00,meteohub,2012-11-12 18:57:00,
2012-11-12 13:58:00,69.8,69.8,30.28,South,180,15.0,16.0,0,0.00,,,0.00,meteohub,2012-11-12 18:58:00,
2012-11-12 14:01:00,69.8,69.8,30.28,SE,135,9.0,16.0,0,0.00,,,0.00,meteohub,2012-11-12 19:01:00,
2012-11-12 14:02:00,69.8,69.8,30.27,SE,135,9.0,16.0,0,0.00,,,0.00,meteohub,2012-11-12 19:02:00,
2012-11-12 14:03:00,69.8,69.8,30.27,SE,135,9.0,16.0,0,0.00,,,0.00,meteohub,2012-11-12 19:03:00,
2012-11-12 14:07:00,70.0,70.0,30.27,WSW,248,4.0,16.0,0,0.00,,,0.00,meteohub,2012-11-12 19:07:00,
2012-11-12 14:09:00,70.2,70.2,30.27,South,180,18.0,18.0,0,0.00,,,0.00,meteohub,2012-11-12 19:09:00,
2012-11-12 14:12:00,70.2,70.2,30.27,East,90,7.0,18.0,0,0.00,,,0.00,meteohub,2012-11-12 19:12:00,
2012-11-12 14:14:00,70.3,70.3,30.27,WSW,248,5.0,18.0,0,0.00,,,0.00,meteohub,2012-11-12 19:14:00,
2012-11-12 14:17:00,70.3,70.3,30.27,SE,135,4.0,18.0,0,0.00,,,0.00,meteohub,2012-11-12 19:17:00,
2012-11-12 14:19:00,70.0,70.0,30.27,North,0,10.0,18.0,0,0.00,,,0.00,meteohub,2012-11-12 19:19:00,
2012-11-12 14:20:00,70.0,70.0,30.27,North,0,10.0,18.0,0,0.00,,,0.00,meteohub,2012-11-12 19:20:00,
2012-11-12 14:22:00,68.7,68.7,30.27,South,180,15.0,18.0,0,0.00,,,0.00,meteohub,2012-11-12 19:22:00,
2012-11-12 14:23:00,68.4,68.4,30.27,South,180,12.0,18.0,0,0.00,,,0.00,meteohub,2012-11-12 19:23:00,
2012-11-12 14:24:00,68.4,68.4,30.27,South,180,11.0,18.0,0,0.00,,,0.00,meteohub,2012-11-12 19:24:00,
2012-11-12 14:25:00,68.2,68.2,30.27,South,180,8.0,18.0,0,0.00,,,0.00,meteohub,2012-11-12 19:25:00,
2012-11-12 14:29:00,68.0,68.0,30.27,SE,135,9.0,15.0,0,0.00,,,0.00,meteohub,2012-11-12 19:29:00,
2012-11-12 14:30:00,68.0,68.0,30.26,East,90,9.0,15.0,0,0.00,,,0.00,meteohub,2012-11-12 19:30:00,
2012-11-12 14:34:00,67.1,67.1,30.26,SE,135,7.0,15.0,0,0.00,,,0.00,meteohub,2012-11-12 19:34:00,
2012-11-12 14:35:00,67.1,67.1,30.26,West,270,10.0,15.0,0,0.00,,,0.00,meteohub,2012-11-12 19:35:00,
2012-11-12 14:39:00,66.9,66.9,30.26,South,180,4.0,15.0,0,0.00,,,0.00,meteohub,2012-11-12 19:39:00,
2012-11-12 14:40:00,66.9,66.9,30.26,South,180,4.0,15.0,0,0.00,,,0.00,meteohub,2012-11-12 19:40:00,
2012-11-12 14:41:00,67.1,67.1,30.26,SE,135,11.0,11.0,0,0.00,,,0.00,meteohub,2012-11-12 19:41:00,
2012-11-12 14:45:00,67.3,67.3,30.27,SE,135,9.0,10.0,0,0.00,,,0.00,meteohub,2012-11-12 19:45:00,
2012-11-12 14:46:00,67.5,67.5,30.26,South,180,8.0,11.0,0,0.00,,,0.00,meteohub,2012-11-12 19:46:00,
2012-11-12 14:48:00,67.6,67.6,30.26,South,180,5.0,11.0,0,0.00,,,0.00,meteohub,2012-11-12 19:48:00,
2012-11-12 14:50:00,67.6,67.6,30.26,South,180,17.0,17.0,0,0.00,,,0.00,meteohub,2012-11-12 19:50:00,
2012-11-12 14:51:00,67.6,67.6,30.26,South,180,17.0,17.0,0,0.00,,,0.00,meteohub,2012-11-12 19:51:00,
2012-11-12 14:52:00,67.5,67.5,30.26,South,180,13.0,13.0,0,0.00,,,0.00,meteohub,2012-11-12 19:52:00,
2012-11-12 14:53:00,67.3,67.3,30.26,South,180,11.0,11.0,0,0.00,,,0.00,meteohub,2012-11-12 19:53:00,
2012-11-12 14:56:00,66.9,66.9,30.26,SE,135,9.0,17.0,0,0.00,,,0.00,meteohub,2012-11-12 19:56:00,
2012-11-12 14:57:00,66.9,66.9,30.26,SE,135,10.0,17.0,0,0.00,,,0.00,meteohub,2012-11-12 19:57:00,
2012-11-12 14:58:00,66.7,66.7,30.26,WSW,248,10.0,17.0,0,0.00,,,0.00,meteohub,2012-11-12 19:58:00,
2012-11-12 15:01:00,66.6,66.6,30.26,SE,135,9.0,19.0,0,0.00,,,0.00,meteohub,2012-11-12 20:01:00,
2012-11-12 15:02:00,66.4,66.4,30.26,South,180,11.0,19.0,0,0.00,,,0.00,meteohub,2012-11-12 20:02:00,
2012-11-12 15:05:00,66.2,66.2,30.26,South,180,10.0,19.0,0,0.00,,,0.00,meteohub,2012-11-12 20:05:00,
2012-11-12 15:06:00,66.2,66.2,30.26,SSE,158,24.0,24.0,0,0.00,,,0.00,meteohub,2012-11-12 20:06:00,
2012-11-12 15:07:00,66.0,66.0,30.26,SE,135,22.0,22.0,0,0.00,,,0.00,meteohub,2012-11-12 20:07:00,
2012-11-12 15:11:00,66.0,66.0,30.27,South,180,11.0,24.0,0,0.00,,,0.00,meteohub,2012-11-12 20:11:00,
2012-11-12 15:12:00,65.8,65.8,30.26,South,180,11.0,24.0,0,0.00,,,0.00,meteohub,2012-11-12 20:12:00,
2012-11-12 15:17:00,65.8,65.8,30.27,SE,135,8.0,24.0,0,0.00,,,0.00,meteohub,2012-11-12 20:17:00,
2012-11-12 15:18:00,65.8,65.8,30.27,South,180,6.0,24.0,0,0.00,,,0.00,meteohub,2012-11-12 20:18:00,
2012-11-12 15:22:00,66.0,66.0,30.27,East,90,8.0,24.0,0,0.00,,,0.00,meteohub,2012-11-12 20:22:00,
2012-11-12 15:23:00,66.0,66.0,30.27,SE,135,7.0,24.0,0,0.00,,,0.00,meteohub,2012-11-12 20:23:00,
2012-11-12 15:24:00,66.0,66.0,30.27,SE,135,4.0,24.0,0,0.00,,,0.00,meteohub,2012-11-12 20:24:00,
2012-11-12 15:28:00,65.8,65.8,30.26,South,180,16.0,16.0,0,0.00,,,0.00,meteohub,2012-11-12 20:28:00,
2012-11-12 15:29:00,65.8,65.8,30.26,South,180,8.0,14.0,0,0.00,,,0.00,meteohub,2012-11-12 20:29:00,
2012-11-12 15:31:00,65.8,65.8,30.27,SE,135,14.0,19.0,0,0.00,,,0.00,meteohub,2012-11-12 20:31:00,
2012-11-12 15:33:00,65.8,65.8,30.26,West,270,12.0,19.0,0,0.00,,,0.00,meteohub,2012-11-12 20:33:00,
2012-11-12 15:34:00,65.8,65.8,30.26,East,90,19.0,19.0,0,0.00,,,0.00,meteohub,2012-11-12 20:34:00,
2012-11-12 15:35:00,65.8,65.8,30.26,East,90,19.0,19.0,0,0.00,,,0.00,meteohub,2012-11-12 20:35:00,
2012-11-12 15:37:00,65.8,65.8,30.26,SE,135,0.0,19.0,0,0.00,,,0.00,meteohub,2012-11-12 20:37:00,
2012-11-12 15:38:00,65.8,65.8,30.26,East,90,7.0,19.0,0,0.00,,,0.00,meteohub,2012-11-12 20:38:00,
2012-11-12 15:40:00,65.8,65.8,30.26,WSW,248,9.0,19.0,0,0.00,,,0.00,meteohub,2012-11-12 20:40:00,
2012-11-12 15:42:00,65.7,65.7,30.25,WSW,248,8.0,19.0,0,0.00,,,0.00,meteohub,2012-11-12 20:42:00,
2012-11-12 15:43:00,65.7,65.7,30.25,SE,135,1.0,19.0,0,0.00,,,0.00,meteohub,2012-11-12 20:43:00,
2012-11-12 15:45:00,65.5,65.5,30.25,South,180,2.0,19.0,0,0.00,,,0.00,meteohub,2012-11-12 20:45:00,
2012-11-12 15:47:00,65.5,65.5,30.25,South,180,2.0,19.0,0,0.00,,,0.00,meteohub,2012-11-12 20:47:00,
2012-11-12 15:48:00,65.5,65.5,30.25,South,180,2.0,19.0,0,0.00,,,0.00,meteohub,2012-11-12 20:48:00,
2012-11-12 15:50:00,65.3,65.3,30.24,SE,135,8.0,11.0,0,0.00,,,0.00,meteohub,2012-11-12 20:50:00,
2012-11-12 15:51:00,65.1,65.1,30.25,South,180,7.0,11.0,0,0.00,,,0.00,meteohub,2012-11-12 20:51:00,
2012-11-12 15:52:00,65.1,65.1,30.24,East,90,8.0,11.0,0,0.00,,,0.00,meteohub,2012-11-12 20:52:00,
2012-11-12 15:54:00,65.1,65.1,30.25,South,180,8.0,11.0,0,0.00,,,0.00,meteohub,2012-11-12 20:54:00,
2012-11-12 15:56:00,64.9,64.9,30.24,SE,135,0.0,11.0,0,0.00,,,0.00,meteohub,2012-11-12 20:56:00,
2012-11-12 15:57:00,64.9,64.9,30.24,East,90,0.0,11.0,0,0.00,,,0.00,meteohub,2012-11-12 20:57:00,
2012-11-12 15:59:00,64.8,64.8,30.24,South,180,9.0,11.0,0,0.00,,,0.00,meteohub,2012-11-12 20:59:00,
2012-11-12 16:02:00,64.6,64.6,30.24,East,90,8.0,9.0,0,0.00,,,0.00,meteohub,2012-11-12 21:02:00,
2012-11-12 16:03:00,64.6,64.6,30.24,East,90,8.0,9.0,0,0.00,,,0.00,meteohub,2012-11-12 21:03:00,
2012-11-12 16:04:00,64.6,64.6,30.24,South,180,9.0,9.0,0,0.00,,,0.00,meteohub,2012-11-12 21:04:00,
2012-11-12 16:07:00,64.4,64.4,30.24,South,180,9.0,9.0,0,0.00,,,0.00,meteohub,2012-11-12 21:07:00,
2012-11-12 16:08:00,64.4,64.4,30.24,SE,135,16.0,16.0,0,0.00,,,0.00,meteohub,2012-11-12 21:08:00,
2012-11-12 16:09:00,64.4,64.4,30.24,East,90,10.0,10.0,0,0.00,,,0.00,meteohub,2012-11-12 21:09:00,
2012-11-12 16:12:00,64.4,64.4,30.24,SE,135,8.0,16.0,0,0.00,,,0.00,meteohub,2012-11-12 21:12:00,
2012-11-12 16:14:00,64.2,64.2,30.25,East,90,11.0,16.0,0,0.00,,,0.00,meteohub,2012-11-12 21:14:00,
2012-11-12 16:15:00,64.2,64.2,30.25,East,90,13.0,16.0,0,0.00,,,0.00,meteohub,2012-11-12 21:15:00,
2012-11-12 16:18:00,64.2,64.2,30.25,South,180,9.0,16.0,0,0.00,,,0.00,meteohub,2012-11-12 21:18:00,
2012-11-12 16:20:00,64.0,6.3,30.25,East,90,6.0,16.0,10,0.00,,,0.00,meteohub,2012-11-12 21:20:00,
2012-11-12 16:21:00,64.0,6.3,30.25,South,180,5.0,16.0,10,0.00,,,0.00,meteohub,2012-11-12 21:21:00,
2012-11-12 16:23:00,64.0,6.3,30.25,South,180,14.0,16.0,10,0.00,,,0.00,meteohub,2012-11-12 21:23:00,
2012-11-12 16:25:00,64.0,6.3,30.25,SE,135,0.0,14.0,10,0.00,,,0.00,meteohub,2012-11-12 21:25:00,
2012-11-12 16:27:00,64.0,6.3,30.25,South,180,6.0,14.0,10,0.00,,,0.00,meteohub,2012-11-12 21:27:00,
2012-11-12 16:28:00,63.9,6.3,30.25,SE,135,5.0,14.0,10,0.00,,,0.00,meteohub,2012-11-12 21:28:00,
2012-11-12 16:29:00,63.9,6.3,30.25,SE,135,11.0,14.0,10,0.00,,,0.00,meteohub,2012-11-12 21:29:00,
2012-11-12 16:32:00,63.9,8.2,30.25,South,180,4.0,14.0,11,0.00,,,0.00,meteohub,2012-11-12 21:32:00,
2012-11-12 16:33:00,63.9,8.2,30.25,SE,135,0.0,14.0,11,0.00,,,0.00,meteohub,2012-11-12 21:33:00,
2012-11-12 16:34:00,63.9,8.2,30.25,SE,135,0.0,14.0,11,0.00,,,0.00,meteohub,2012-11-12 21:34:00,
2012-11-12 16:37:00,63.7,8.2,30.25,East,90,20.0,20.0,11,0.00,,,0.00,meteohub,2012-11-12 21:37:00,
2012-11-12 16:39:00,63.7,8.2,30.25,SE,135,10.0,14.0,11,0.00,,,0.00,meteohub,2012-11-12 21:39:00,
2012-11-12 16:42:00,63.7,10.0,30.24,SE,135,14.0,20.0,12,0.00,,,0.00,meteohub,2012-11-12 21:42:00,
2012-11-12 16:43:00,63.5,11.8,30.25,South,180,27.0,27.0,13,0.00,,,0.00,meteohub,2012-11-12 21:43:00,
2012-11-12 16:44:00,63.5,11.8,30.25,WSW,248,10.0,20.0,13,0.00,,,0.00,meteohub,2012-11-12 21:44:00,
2012-11-12 16:47:00,63.5,11.8,30.25,South,180,11.0,20.0,13,0.00,,,0.00,meteohub,2012-11-12 21:47:00,
2012-11-12 16:49:00,63.5,11.8,30.25,South,180,11.0,20.0,13,0.00,,,0.00,meteohub,2012-11-12 21:49:00,
2012-11-12 16:50:00,63.5,11.8,30.25,South,180,11.0,27.0,13,0.00,,,0.00,meteohub,2012-11-12 21:50:00,
2012-11-12 16:52:00,63.1,13.1,30.25,SE,135,10.0,27.0,14,0.00,,,0.00,meteohub,2012-11-12 21:52:00,
2012-11-12 16:54:00,63.1,14.7,30.25,SE,135,8.0,27.0,15,0.00,,,0.00,meteohub,2012-11-12 21:54:00,
2012-11-12 16:55:00,63.1,14.7,30.24,SE,135,12.0,27.0,15,0.00,,,0.00,meteohub,2012-11-12 21:55:00,
2012-11-12 16:59:00,63.0,14.5,30.25,SE,135,8.0,27.0,15,0.00,,,0.00,meteohub,2012-11-12 21:59:00,
2012-11-12 17:00:00,63.1,14.7,30.25,SSE,158,8.0,12.0,15,0.00,,,0.00,meteohub,2012-11-12 22:00:00,
2012-11-12 17:01:00,63.1,14.7,30.25,SSE,158,8.0,12.0,15,0.00,,,0.00,meteohub,2012-11-12 22:01:00,
2012-11-12 17:04:00,63.1,14.7,30.25,SSE,158,8.0,12.0,15,0.00,,,0.00,meteohub,2012-11-12 22:04:00,
2012-11-12 17:05:00,63.1,14.7,30.25,SSE,158,8.0,12.0,15,0.00,,,0.00,meteohub,2012-11-12 22:05:00,
2012-11-12 17:06:00,63.1,14.7,30.24,SSE,158,8.0,12.0,15,0.00,,,0.00,meteohub,2012-11-12 22:06:00,
2012-11-12 17:07:00,63.1,14.7,30.24,SSE,158,8.0,12.0,15,0.00,,,0.00,meteohub,2012-11-12 22:07:00,
2012-11-12 17:10:00,62.8,17.2,30.24,East,90,1.0,14.0,17,0.00,,,0.00,meteohub,2012-11-12 22:10:00,
2012-11-12 17:11:00,62.6,17.2,30.24,South,180,0.0,14.0,17,0.00,,,0.00,meteohub,2012-11-12 22:11:00,
2012-11-12 17:12:00,62.6,17.2,30.24,South,180,0.0,14.0,17,0.00,,,0.00,meteohub,2012-11-12 22:12:00,
2012-11-12 17:16:00,62.4,18.3,30.24,SE,135,21.0,21.0,18,0.00,,,0.00,meteohub,2012-11-12 22:16:00,
2012-11-12 17:17:00,62.4,19.6,30.24,SE,135,8.0,14.0,19,0.00,,,0.00,meteohub,2012-11-12 22:17:00,
2012-11-12 17:18:00,62.4,19.6,30.24,SE,135,11.0,14.0,19,0.00,,,0.00,meteohub,2012-11-12 22:18:00,
2012-11-12 17:21:00,62.2,19.4,30.25,West,270,10.0,21.0,19,0.00,,,0.00,meteohub,2012-11-12 22:21:00,
2012-11-12 17:22:00,62.2,19.4,30.25,SE,135,6.0,21.0,19,0.00,,,0.00,meteohub,2012-11-12 22:22:00,
2012-11-12 17:23:00,62.2,19.4,30.25,WSW,248,8.0,21.0,19,0.00,,,0.00,meteohub,2012-11-12 22:23:00,
2012-11-12 17:26:00,62.2,19.4,30.25,WSW,248,0.0,21.0,19,0.00,,,0.00,meteohub,2012-11-12 22:26:00,
2012-11-12 17:27:00,62.2,19.4,30.25,SE,135,7.0,21.0,19,0.00,,,0.00,meteohub,2012-11-12 22:27:00,
2012-11-12 17:29:00,62.2,19.4,30.24,East,90,2.0,21.0,19,0.00,,,0.00,meteohub,2012-11-12 22:29:00,
2012-11-12 17:32:00,62.2,19.4,30.24,South,180,5.0,21.0,19,0.00,,,0.00,meteohub,2012-11-12 22:32:00,
2012-11-12 17:33:00,62.1,20.5,30.25,SE,135,15.0,21.0,20,0.00,,,0.00,meteohub,2012-11-12 22:33:00,
2012-11-12 17:34:00,62.1,20.5,30.24,WSW,248,0.0,21.0,20,0.00,,,0.00,meteohub,2012-11-12 22:34:00,
2012-11-12 17:38:00,62.2,19.4,30.25,NE,45,3.0,15.0,19,0.00,,,0.00,meteohub,2012-11-12 22:38:00,
2012-11-12 17:39:00,62.2,19.4,30.25,SE,135,7.0,15.0,19,0.00,,,0.00,meteohub,2012-11-12 22:39:00,
2012-11-12 17:40:00,62.2,19.4,30.25,SE,135,7.0,15.0,19,0.00,,,0.00,meteohub,2012-11-12 22:40:00,
2012-11-12 17:43:00,62.2,19.4,30.24,SE,135,14.0,15.0,19,0.00,,,0.00,meteohub,2012-11-12 22:43:00,
2012-11-12 17:44:00,62.4,19.6,30.23,SE,135,17.0,17.0,19,0.00,,,0.00,meteohub,2012-11-12 22:44:00,
2012-11-12 17:45:00,62.4,19.6,30.23,SE,135,17.0,19.0,19,0.00,,,0.00,meteohub,2012-11-12 22:45:00,
2012-11-12 17:48:00,62.4,19.6,30.24,SE,135,15.0,19.0,19,0.00,,,0.00,meteohub,2012-11-12 22:48:00,
2012-11-12 17:49:00,62.2,19.4,30.24,NE,45,6.0,19.0,19,0.00,,,0.00,meteohub,2012-11-12 22:49:00,
2012-11-12 17:50:00,62.2,19.4,30.24,SE,135,11.0,19.0,19,0.00,,,0.00,meteohub,2012-11-12 22:50:00,
2012-11-12 17:51:00,62.2,19.4,30.24,SE,135,10.0,19.0,19,0.00,,,0.00,meteohub,2012-11-12 22:51:00,
2012-11-12 17:54:00,62.2,19.4,30.24,SE,135,10.0,19.0,19,0.00,,,0.00,meteohub,2012-11-12 22:54:00,
2012-11-12 17:55:00,62.2,19.4,30.24,SE,135,10.0,19.0,19,0.00,,,0.00,meteohub,2012-11-12 22:55:00,
2012-11-12 17:56:00,62.2,19.4,30.24,South,180,9.0,17.0,19,0.00,,,0.00,meteohub,2012-11-12 22:56:00,
2012-11-12 17:58:00,62.2,19.4,30.24,North,0,9.0,17.0,19,0.00,,,0.00,meteohub,2012-11-12 22:58:00,
2012-11-12 18:01:00,62.2,20.7,30.24,SE,135,4.0,19.0,20,0.00,,,0.00,meteohub,2012-11-12 23:01:00,
2012-11-12 18:02:00,62.2,20.7,30.24,SE,135,4.0,19.0,20,0.00,,,0.00,meteohub,2012-11-12 23:02:00,
2012-11-12 18:04:00,62.2,20.7,30.25,SE,135,4.0,19.0,20,0.00,,,0.00,meteohub,2012-11-12 23:04:00,
2012-11-12 18:06:00,62.2,20.7,30.25,SE,135,4.0,19.0,20,0.00,,,0.00,meteohub,2012-11-12 23:06:00,
2012-11-12 18:07:00,62.1,20.5,30.25,South,180,11.0,19.0,20,0.00,,,0.00,meteohub,2012-11-12 23:07:00,
2012-11-12 18:09:00,62.1,20.5,30.25,South,180,13.0,19.0,20,0.00,,,0.00,meteohub,2012-11-12 23:09:00,
2012-11-12 18:11:00,62.1,20.5,30.25,South,180,3.0,11.0,20,0.00,,,0.00,meteohub,2012-11-12 23:11:00,
2012-11-12 18:12:00,62.1,20.5,30.25,South,180,12.0,12.0,20,0.00,,,0.00,meteohub,2012-11-12 23:12:00,
2012-11-12 18:14:00,62.1,20.5,30.25,SE,135,23.0,23.0,20,0.00,,,0.00,meteohub,2012-11-12 23:14:00,
2012-11-12 18:17:00,62.2,20.7,30.24,South,180,11.0,13.0,20,0.00,,,0.00,meteohub,2012-11-12 23:17:00,
2012-11-12 18:18:00,62.2,20.7,30.24,SE,135,10.0,13.0,20,0.00,,,0.00,meteohub,2012-11-12 23:18:00,
2012-11-12 18:20:00,62.2,20.7,30.25,SE,135,17.0,17.0,20,0.00,,,0.00,meteohub,2012-11-12 23:20:00,
2012-11-12 18:22:00,62.2,20.7,30.24,East,90,4.0,23.0,20,0.00,,,0.00,meteohub,2012-11-12 23:22:00,
2012-11-12 18:23:00,62.2,20.7,30.25,South,180,1.0,23.0,20,0.00,,,0.00,meteohub,2012-11-12 23:23:00,
2012-11-12 18:24:00,62.2,20.7,30.25,South,180,1.0,23.0,20,0.00,,,0.00,meteohub,2012-11-12 23:24:00,
2012-11-12 18:25:00,62.2,20.7,30.24,West,270,10.0,23.0,20,0.00,,,0.00,meteohub,2012-11-12 23:25:00,
2012-11-12 18:28:00,62.1,20.5,30.24,South,180,0.0,23.0,20,0.00,,,0.00,meteohub,2012-11-12 23:28:00,
2012-11-12 18:29:00,62.1,20.5,30.24,SE,135,1.0,23.0,20,0.00,,,0.00,meteohub,2012-11-12 23:29:00,
2012-11-12 18:30:00,62.1,20.5,30.24,SE,135,2.0,19.0,20,0.00,,,0.00,meteohub,2012-11-12 23:30:00,
2012-11-12 18:33:00,62.1,20.5,30.24,South,180,14.0,19.0,20,0.00,,,0.00,meteohub,2012-11-12 23:33:00,
2012-11-12 18:34:00,62.1,20.5,30.24,South,180,14.0,19.0,20,0.00,,,0.00,meteohub,2012-11-12 23:34:00,
2012-11-12 18:35:00,62.1,21.7,30.24,SSE,158,6.0,17.0,21,0.00,,,0.00,meteohub,2012-11-12 23:35:00,
2012-11-12 18:38:00,61.9,21.6,30.25,South,180,0.0,17.0,21,0.00,,,0.00,meteohub,2012-11-12 23:38:00,
2012-11-12 18:39:00,61.9,21.6,30.25,South,180,0.0,17.0,21,0.00,,,0.00,meteohub,2012-11-12 23:39:00,
2012-11-12 18:41:00,61.9,21.6,30.24,South,180,0.0,14.0,21,0.00,,,0.00,meteohub,2012-11-12 23:41:00,
2012-11-12 18:44:00,61.9,21.6,30.24,WSW,248,7.0,14.0,21,0.00,,,0.00,meteohub,2012-11-12 23:44:00,
2012-11-12 18:45:00,61.9,21.6,30.25,South,180,12.0,14.0,21,0.00,,,0.00,meteohub,2012-11-12 23:45:00,
2012-11-12 18:47:00,61.9,21.6,30.25,South,180,8.0,14.0,21,0.00,,,0.00,meteohub,2012-11-12 23:47:00,
2012-11-12 18:49:00,61.9,22.6,30.26,WSW,248,17.0,17.0,22,0.00,,,0.00,meteohub,2012-11-12 23:49:00,
2012-11-12 18:50:00,61.9,22.6,30.27,West,270,8.0,14.0,22,0.00,,,0.00,meteohub,2012-11-12 23:50:00,
2012-11-12 18:52:00,61.5,26.2,30.27,NW,315,11.0,15.0,26,0.00,,,0.00,meteohub,2012-11-12 23:52:00,
2012-11-12 18:54:00,60.4,30.4,30.27,NW,315,10.0,15.0,32,0.00,,,0.00,meteohub,2012-11-12 23:54:00,
2012-11-12 18:55:00,59.5,30.4,30.28,NW,315,26.0,26.0,33,0.00,,,0.00,meteohub,2012-11-12 23:55:00,
2012-11-12 18:56:00,58.3,29.3,30.29,NW,315,17.0,17.0,33,0.00,,,0.00,meteohub,2012-11-12 23:56:00,
2012-11-12 18:57:00,57.0,28.9,30.29,NW,315,15.0,17.0,34,0.00,,,0.00,meteohub,2012-11-12 23:57:00,
2012-11-12 19:00:00,54.3,30.6,30.28,West,270,15.0,17.0,40,0.00,,,0.17,meteohub,2012-11-13 00:00:00,
2012-11-12 19:02:00,54.3,30.6,30.29,West,270,15.0,26.0,40,0.17,,,0.17,meteohub,2012-11-13 00:02:00,
2012-11-12 19:06:00,54.3,30.6,30.30,West,270,15.0,26.0,40,0.17,,,0.17,meteohub,2012-11-13 00:06:00,
2012-11-12 19:09:00,51.1,37.2,30.30,NW,315,12.0,26.0,59,0.17,,,0.17,meteohub,2012-11-13 00:09:00,
2012-11-12 19:10:00,51.1,37.2,30.30,NW,315,12.0,26.0,59,0.17,,,0.21,meteohub,2012-11-13 00:10:00,
2012-11-12 19:11:00,51.1,38.1,30.30,NW,315,7.0,26.0,61,0.21,,,0.21,meteohub,2012-11-13 00:11:00,
2012-11-12 19:12:00,51.1,38.5,30.30,North,0,7.0,26.0,62,0.21,,,0.21,meteohub,2012-11-13 00:12:00,
2012-11-12 19:14:00,50.7,39.0,30.30,West,270,16.0,26.0,64,0.21,,,0.21,meteohub,2012-11-13 00:14:00,
2012-11-12 19:16:00,50.5,38.8,30.30,North,0,7.0,23.0,64,0.26,,,0.26,meteohub,2012-11-13 00:16:00,
2012-11-12 19:17:00,50.4,39.0,30.30,North,0,14.0,23.0,65,0.26,,,0.26,meteohub,2012-11-13 00:17:00,
2012-11-12 19:18:00,50.2,38.8,30.30,NE,45,8.0,23.0,65,0.26,,,0.26,meteohub,2012-11-13 00:18:00,
2012-11-12 19:20:00,50.0,39.0,30.30,NW,315,6.0,23.0,66,0.26,,,0.26,meteohub,2012-11-13 00:20:00,
2012-11-12 19:21:00,49.8,39.4,30.31,NW,315,11.0,23.0,67,0.28,,,0.28,meteohub,2012-11-13 00:21:00,
2012-11-12 19:22:00,49.5,39.0,30.31,NW,315,21.0,23.0,67,0.28,,,0.28,meteohub,2012-11-13 00:22:00,
2012-11-12 19:23:00,49.3,39.2,30.31,NW,315,8.0,23.0,68,0.28,,,0.28,meteohub,2012-11-13 00:23:00,
2012-11-12 19:25:00,49.1,39.0,30.31,North,0,11.0,23.0,68,0.28,,,0.28,meteohub,2012-11-13 00:25:00,
2012-11-12 19:26:00,48.9,39.2,30.31,West,270,7.0,23.0,69,0.33,,,0.33,meteohub,2012-11-13 00:26:00,
2012-11-12 19:28:00,48.7,39.4,30.32,NW,315,9.0,23.0,70,0.33,,,0.33,meteohub,2012-11-13 00:28:00,
2012-11-12 19:29:00,48.7,39.4,30.32,West,270,11.0,23.0,70,0.33,,,0.33,meteohub,2012-11-13 00:29:00,
2012-11-12 19:31:00,48.6,39.6,30.32,NW,315,19.0,21.0,71,0.35,,,0.35,meteohub,2012-11-13 00:31:00,
2012-11-12 19:34:00,48.4,39.7,30.33,NW,315,17.0,21.0,72,0.35,,,0.35,meteohub,2012-11-13 00:34:00,
2012-11-12 19:37:00,48.2,39.6,30.34,WSW,248,8.0,21.0,72,0.38,,,0.38,meteohub,2012-11-13 00:37:00,
2012-11-12 19:40:00,48.0,39.7,30.35,South,180,9.0,21.0,73,0.38,,,0.38,meteohub,2012-11-13 00:40:00,
2012-11-12 19:42:00,48.0,39.7,30.35,WSW,248,10.0,19.0,73,0.40,,,0.40,meteohub,2012-11-13 00:42:00,
2012-11-12 19:43:00,47.8,39.6,30.35,WSW,248,18.0,19.0,73,0.40,,,0.40,meteohub,2012-11-13 00:43:00,
2012-11-12 19:45:00,47.7,39.4,30.36,North,0,10.0,19.0,73,0.40,,,0.40,meteohub,2012-11-13 00:45:00,
2012-11-12 19:47:00,47.5,39.6,30.35,West,270,13.0,19.0,74,0.40,,,0.40,meteohub,2012-11-13 00:47:00,
2012-11-12 19:48:00,47.5,39.2,30.36,West,270,15.0,19.0,73,0.40,,,0.40,meteohub,2012-11-13 00:48:00,
2012-11-12 19:51:00,47.1,38.8,30.36,West,270,9.0,21.0,73,0.43,,,0.43,meteohub,2012-11-13 00:51:00,
2012-11-12 19:52:00,47.1,38.8,30.36,West,270,14.0,21.0,73,0.43,,,0.43,meteohub,2012-11-13 00:52:00,
2012-11-12 19:53:00,46.9,38.7,30.37,WNW,293,9.0,21.0,73,0.43,,,0.43,meteohub,2012-11-13 00:53:00,
2012-11-12 19:54:00,46.9,38.7,30.37,WNW,293,9.0,21.0,73,0.43,,,0.43,meteohub,2012-11-13 00:54:00,
2012-11-12 19:56:00,46.8,38.5,30.38,West,270,7.0,21.0,73,0.38,,,0.45,meteohub,2012-11-13 00:56:00,
2012-11-12 19:57:00,46.6,38.5,30.38,NE,45,6.0,21.0,73,0.38,,,0.45,meteohub,2012-11-13 00:57:00,
2012-11-12 19:58:00,46.2,38.1,30.38,NW,315,13.0,21.0,73,0.38,,,0.45,meteohub,2012-11-13 00:58:00,
2012-11-12 20:00:00,46.0,37.6,30.37,WSW,248,11.0,21.0,72,0.38,,,0.47,meteohub,2012-11-13 01:00:00,
2012-11-12 20:01:00,46.0,37.6,30.38,WSW,248,11.0,21.0,72,0.31,,,0.47,meteohub,2012-11-13 01:01:00,
2012-11-12 20:03:00,45.3,36.9,30.38,NW,315,8.0,21.0,72,0.31,,,0.47,meteohub,2012-11-13 01:03:00,
2012-11-12 20:04:00,45.0,36.5,30.39,NW,315,12.0,21.0,72,0.31,,,0.47,meteohub,2012-11-13 01:04:00,
2012-11-12 20:05:00,45.0,36.5,30.38,NW,315,8.0,14.0,72,0.35,,,0.52,meteohub,2012-11-13 01:05:00,
2012-11-12 20:06:00,44.8,36.3,30.39,NW,315,8.0,14.0,72,0.35,,,0.52,meteohub,2012-11-13 01:06:00,
2012-11-12 20:08:00,44.6,36.1,30.39,West,270,14.0,14.0,72,0.35,,,0.52,meteohub,2012-11-13 01:08:00,
2012-11-12 20:09:00,44.4,36.0,30.38,NW,315,7.0,14.0,72,0.35,,,0.52,meteohub,2012-11-13 01:09:00,
2012-11-12 20:11:00,44.2,35.8,30.38,NW,315,14.0,14.0,72,0.32,,,0.54,meteohub,2012-11-13 01:11:00,
2012-11-12 20:12:00,44.1,35.6,30.38,West,270,5.0,14.0,72,0.32,,,0.54,meteohub,2012-11-13 01:12:00,
2012-11-12 20:13:00,44.1,35.6,30.38,NW,315,10.0,14.0,72,0.32,,,0.54,meteohub,2012-11-13 01:13:00,
2012-11-12 20:14:00,43.9,35.4,30.39,NW,315,10.0,14.0,72,0.32,,,0.54,meteohub,2012-11-13 01:14:00,
2012-11-12 20:16:00,43.7,35.6,30.39,West,270,12.0,14.0,73,0.33,,,0.59,meteohub,2012-11-13 01:16:00,
2012-11-12 20:17:00,43.7,35.6,30.39,NW,315,4.0,14.0,73,0.33,,,0.59,meteohub,2012-11-13 01:17:00,
2012-11-12 20:19:00,43.7,35.6,30.39,South,180,8.0,14.0,73,0.33,,,0.59,meteohub,2012-11-13 01:19:00,
2012-11-12 20:21:00,43.7,36.0,30.39,NW,315,17.0,17.0,74,0.33,,,0.64,meteohub,2012-11-13 01:21:00,
2012-11-12 20:22:00,43.5,35.8,30.39,NW,315,14.0,14.0,74,0.33,,,0.64,meteohub,2012-11-13 01:22:00,
2012-11-12 20:23:00,43.5,35.8,30.40,NW,315,4.0,14.0,74,0.33,,,0.64,meteohub,2012-11-13 01:23:00,
2012-11-12 20:24:00,43.5,35.8,30.39,NW,315,4.0,14.0,74,0.33,,,0.64,meteohub,2012-11-13 01:24:00,
2012-11-12 20:27:00,43.5,35.8,30.40,North,0,8.0,17.0,74,0.35,,,0.71,meteohub,2012-11-13 01:27:00,
2012-11-12 20:28:00,43.5,36.1,30.40,West,270,8.0,17.0,75,0.35,,,0.71,meteohub,2012-11-13 01:28:00,
2012-11-12 20:29:00,43.3,36.0,30.39,WSW,248,5.0,17.0,75,0.35,,,0.71,meteohub,2012-11-13 01:29:00,
2012-11-12 20:32:00,43.3,36.0,30.40,South,180,6.0,17.0,75,0.37,,,0.73,meteohub,2012-11-13 01:32:00,
2012-11-12 20:33:00,43.3,36.0,30.40,WSW,248,8.0,17.0,75,0.37,,,0.73,meteohub,2012-11-13 01:33:00,
2012-11-12 20:34:00,43.3,36.0,30.40,North,0,5.0,17.0,75,0.37,,,0.73,meteohub,2012-11-13 01:34:00,
2012-11-12 20:36:00,43.3,36.3,30.40,NW,315,16.0,17.0,76,0.35,,,0.73,meteohub,2012-11-13 01:36:00,
2012-11-12 20:38:00,43.3,36.3,30.40,NW,315,8.0,17.0,76,0.35,,,0.73,meteohub,2012-11-13 01:38:00,
2012-11-12 20:39:00,43.3,36.3,30.40,NW,315,8.0,17.0,76,0.35,,,0.73,meteohub,2012-11-13 01:39:00,
2012-11-12 20:40:00,43.2,36.1,30.41,West,270,6.0,17.0,76,0.35,,,0.76,meteohub,2012-11-13 01:40:00,
2012-11-12 20:41:00,43.2,36.1,30.40,NW,315,5.0,17.0,76,0.35,,,0.76,meteohub,2012-11-13 01:41:00,
2012-11-12 20:44:00,43.2,36.5,30.41,West,270,6.0,17.0,77,0.35,,,0.76,meteohub,2012-11-13 01:44:00,
2012-11-12 20:46:00,43.0,36.3,30.41,West,270,8.0,17.0,77,0.35,,,0.76,meteohub,2012-11-13 01:46:00,
2012-11-12 20:47:00,43.0,36.3,30.42,WSW,248,15.0,17.0,77,0.35,,,0.76,meteohub,2012-11-13 01:47:00,
2012-11-12 20:49:00,42.8,36.1,30.42,NW,315,8.0,17.0,77,0.35,,,0.76,meteohub,2012-11-13 01:49:00,
2012-11-12 20:50:00,42.6,36.0,30.42,NW,315,16.0,16.0,77,0.34,,,0.77,meteohub,2012-11-13 01:50:00,
2012-11-12 20:52:00,42.4,35.8,30.42,NW,315,8.0,16.0,77,0.34,,,0.77,meteohub,2012-11-13 01:52:00,
2012-11-12 20:53:00,42.4,35.8,30.42,WSW,248,7.0,16.0,77,0.34,,,0.77,meteohub,2012-11-13 01:53:00,
2012-11-12 20:55:00,42.3,35.2,30.42,SE,135,10.0,16.0,76,0.30,,,0.77,meteohub,2012-11-13 01:55:00,
2012-11-12 20:56:00,42.3,35.2,30.43,WSW,248,11.0,16.0,76,0.30,,,0.77,meteohub,2012-11-13 01:56:00,
2012-11-12 20:59:00,41.9,34.9,30.43,West,270,4.0,16.0,76,0.30,,,0.77,meteohub,2012-11-13 01:59:00,
2012-11-12 21:00:00,41.9,34.9,30.43,West,270,4.0,18.0,76,0.30,,,0.78,meteohub,2012-11-13 02:00:00,
2012-11-12 21:02:00,41.7,34.7,30.43,WNW,293,13.0,18.0,76,0.30,,,0.78,meteohub,2012-11-13 02:02:00,
2012-11-12 21:05:00,41.5,34.2,30.44,NW,315,8.0,18.0,75,0.30,,,0.78,meteohub,2012-11-13 02:05:00,
2012-11-12 21:06:00,41.5,34.2,30.44,NW,315,6.0,18.0,75,0.26,,,0.78,meteohub,2012-11-13 02:06:00,
2012-11-12 21:07:00,41.4,34.0,30.44,North,0,14.0,18.0,75,0.26,,,0.78,meteohub,2012-11-13 02:07:00,
2012-11-12 21:10:00,41.2,33.8,30.44,NW,315,5.0,18.0,75,0.26,,,0.78,meteohub,2012-11-13 02:10:00,
2012-11-12 21:11:00,41.2,33.8,30.45,NW,315,6.0,15.0,75,0.24,,,0.78,meteohub,2012-11-13 02:11:00,
2012-11-12 21:12:00,41.2,33.8,30.45,NW,315,6.0,15.0,75,0.24,,,0.78,meteohub,2012-11-13 02:12:00,
2012-11-12 21:15:00,41.0,33.4,30.44,NNW,338,7.0,14.0,74,0.22,,,0.81,meteohub,2012-11-13 02:15:00,
2012-11-12 21:17:00,40.8,33.3,30.45,NW,315,6.0,14.0,74,0.22,,,0.81,meteohub,2012-11-13 02:17:00,
2012-11-12 21:18:00,40.8,33.3,30.45,West,270,9.0,14.0,74,0.22,,,0.81,meteohub,2012-11-13 02:18:00,
2012-11-12 21:21:00,40.6,33.1,30.45,WNW,293,5.0,14.0,74,0.15,,,0.81,meteohub,2012-11-13 02:21:00,
2012-11-12 21:22:00,40.6,33.1,30.45,WNW,293,5.0,14.0,74,0.15,,,0.81,meteohub,2012-11-13 02:22:00,
2012-11-12 21:24:00,40.5,32.9,30.45,WSW,248,9.0,14.0,74,0.15,,,0.81,meteohub,2012-11-13 02:24:00,
2012-11-12 21:27:00,40.3,32.7,30.45,West,270,9.0,14.0,74,0.11,,,0.81,meteohub,2012-11-13 02:27:00,
2012-11-12 21:28:00,40.3,32.7,30.45,West,270,9.0,14.0,74,0.11,,,0.81,meteohub,2012-11-13 02:28:00,
2012-11-12 21:30:00,40.3,32.7,30.45,North,0,8.0,17.0,74,0.08,,,0.81,meteohub,2012-11-13 02:30:00,
2012-11-12 21:33:00,40.1,32.5,30.45,WSW,248,13.0,17.0,74,0.08,,,0.81,meteohub,2012-11-13 02:33:00,
2012-11-12 21:34:00,40.1,32.5,30.46,WSW,248,16.0,17.0,74,0.08,,,0.81,meteohub,2012-11-13 02:34:00,
2012-11-12 21:35:00,39.9,32.4,30.45,West,270,8.0,17.0,74,0.08,,,0.81,meteohub,2012-11-13 02:35:00,
2012-11-12 21:38:00,39.9,32.0,30.46,WSW,248,7.0,17.0,73,0.08,,,0.81,meteohub,2012-11-13 02:38:00,
2012-11-12 21:39:00,39.9,32.4,30.45,NW,315,12.0,17.0,74,0.08,,,0.81,meteohub,2012-11-13 02:39:00,
2012-11-12 21:40:00,39.9,32.4,30.46,NW,315,9.0,17.0,74,0.06,,,0.81,meteohub,2012-11-13 02:40:00,
2012-11-12 21:44:00,39.7,31.8,30.46,NW,315,11.0,17.0,73,0.06,,,0.81,meteohub,2012-11-13 02:44:00,
2012-11-12 21:45:00,39.7,31.8,30.45,WSW,248,10.0,17.0,73,0.06,,,0.84,meteohub,2012-11-13 02:45:00,
2012-11-12 21:46:00,39.7,31.8,30.45,WSW,248,10.0,16.0,73,0.08,,,0.84,meteohub,2012-11-13 02:46:00,
2012-11-12 21:47:00,39.6,31.6,30.45,West,270,10.0,16.0,73,0.08,,,0.84,meteohub,2012-11-13 02:47:00,
2012-11-12 21:49:00,39.4,31.5,30.45,West,270,13.0,16.0,73,0.08,,,0.84,meteohub,2012-11-13 02:49:00,
2012-11-12 21:50:00,39.4,31.5,30.45,West,270,13.0,14.0,73,0.07,,,0.84,meteohub,2012-11-13 02:50:00,
2012-11-12 21:51:00,39.4,31.8,30.45,NW,315,6.0,14.0,74,0.07,,,0.84,meteohub,2012-11-13 02:51:00,
2012-11-12 21:52:00,39.4,31.5,30.45,WSW,248,7.0,14.0,73,0.07,,,0.84,meteohub,2012-11-13 02:52:00,
2012-11-12 21:54:00,39.2,31.3,30.45,West,270,6.0,14.0,73,0.07,,,0.84,meteohub,2012-11-13 02:54:00,
2012-11-12 21:56:00,39.0,31.1,30.45,WSW,248,9.0,21.0,73,0.06,,,0.84,meteohub,2012-11-13 02:56:00,
2012-11-12 21:57:00,39.0,31.1,30.45,WSW,248,9.0,21.0,73,0.06,,,0.84,meteohub,2012-11-13 02:57:00,
2012-11-12 22:00:00,39.0,31.1,30.45,NW,315,11.0,21.0,73,0.06,,,0.84,meteohub,2012-11-13 03:00:00,
2012-11-12 22:02:00,39.0,31.1,30.44,WSW,248,5.0,21.0,73,0.07,,,0.85,meteohub,2012-11-13 03:02:00,
2012-11-12 22:05:00,38.8,30.9,30.45,WSW,248,8.0,21.0,73,0.07,,,0.85,meteohub,2012-11-13 03:05:00,
2012-11-12 22:07:00,38.8,30.9,30.44,West,270,5.0,21.0,73,0.07,,,0.85,meteohub,2012-11-13 03:07:00,
2012-11-12 22:08:00,38.8,30.9,30.44,WSW,248,5.0,21.0,73,0.07,,,0.85,meteohub,2012-11-13 03:08:00,
2012-11-12 22:10:00,38.8,31.3,30.44,WSW,248,5.0,16.0,74,0.08,,,0.86,meteohub,2012-11-13 03:10:00,
2012-11-12 22:12:00,38.8,31.3,30.44,South,180,11.0,16.0,74,0.08,,,0.86,meteohub,2012-11-13 03:12:00,
2012-11-12 22:13:00,38.8,31.3,30.45,West,270,8.0,16.0,74,0.08,,,0.86,meteohub,2012-11-13 03:13:00,
2012-11-12 22:14:00,38.7,31.1,30.44,WSW,248,6.0,16.0,74,0.08,,,0.86,meteohub,2012-11-13 03:14:00,
2012-11-12 22:15:00,38.7,31.1,30.45,WSW,248,6.0,11.0,74,0.05,,,0.86,meteohub,2012-11-13 03:15:00,
2012-11-12 22:19:00,38.7,31.1,30.45,NE,45,4.0,11.0,74,0.05,,,0.86,meteohub,2012-11-13 03:19:00,
2012-11-12 22:20:00,38.7,31.1,30.45,West,270,6.0,11.0,74,0.05,,,0.86,meteohub,2012-11-13 03:20:00,
2012-11-12 22:21:00,38.7,31.1,30.45,WSW,248,5.0,11.0,74,0.05,,,0.86,meteohub,2012-11-13 03:21:00,
2012-11-12 22:23:00,38.7,31.1,30.45,West,270,9.0,11.0,74,0.05,,,0.86,meteohub,2012-11-13 03:23:00,
2012-11-12 22:24:00,40.5,32.9,30.45,West,270,9.0,11.0,74,0.05,,,0.86,meteohub,2012-11-13 03:24:00,
2012-11-12 22:25:00,38.7,31.1,30.45,WSW,248,4.0,11.0,74,0.05,,,0.86,meteohub,2012-11-13 03:25:00,
2012-11-12 22:26:00,38.7,31.1,30.45,West,270,5.0,11.0,74,0.05,,,0.86,meteohub,2012-11-13 03:26:00,
2012-11-12 22:28:00,38.7,31.5,30.45,WSW,248,13.0,13.0,75,0.05,,,0.86,meteohub,2012-11-13 03:28:00,
2012-11-12 22:29:00,38.7,31.5,30.44,WSW,248,10.0,11.0,75,0.05,,,0.86,meteohub,2012-11-13 03:29:00,
2012-11-12 22:31:00,38.5,31.3,30.45,West,270,3.0,13.0,75,0.05,,,0.86,meteohub,2012-11-13 03:31:00,
2012-11-12 22:34:00,38.5,31.3,30.44,West,270,3.0,13.0,75,0.05,,,0.86,meteohub,2012-11-13 03:34:00,
2012-11-12 22:35:00,38.5,31.3,30.44,NW,315,8.0,13.0,75,0.05,,,0.86,meteohub,2012-11-13 03:35:00,
2012-11-12 22:36:00,38.5,31.3,30.44,WSW,248,4.0,13.0,75,0.05,,,0.86,meteohub,2012-11-13 03:36:00,
2012-11-12 22:38:00,38.5,31.3,30.45,WSW,248,6.0,13.0,75,0.05,,,0.86,meteohub,2012-11-13 03:38:00,
2012-11-12 22:39:00,38.5,31.3,30.45,WSW,248,5.0,13.0,75,0.05,,,0.86,meteohub,2012-11-13 03:39:00,
2012-11-12 22:40:00,38.5,31.3,30.44,West,270,8.0,13.0,75,0.04,,,0.87,meteohub,2012-11-13 03:40:00,
2012-11-12 22:43:00,38.5,31.6,30.44,WSW,248,4.0,13.0,76,0.04,,,0.87,meteohub,2012-11-13 03:43:00,
2012-11-12 22:44:00,38.5,31.6,30.44,West,270,8.0,13.0,76,0.04,,,0.87,meteohub,2012-11-13 03:44:00,
2012-11-12 22:46:00,38.5,31.6,30.44,NW,315,5.0,9.0,76,0.05,,,0.89,meteohub,2012-11-13 03:46:00,
2012-11-12 22:48:00,38.3,31.5,30.45,West,270,7.0,9.0,76,0.05,,,0.89,meteohub,2012-11-13 03:48:00,
2012-11-12 22:50:00,38.3,31.5,30.44,WSW,248,5.0,9.0,76,0.05,,,0.89,meteohub,2012-11-13 03:50:00,
2012-11-12 22:51:00,38.3,31.5,30.45,NW,315,8.0,15.0,76,0.05,,,0.89,meteohub,2012-11-13 03:51:00,
2012-11-12 22:52:00,38.3,31.5,30.45,WSW,248,4.0,15.0,76,0.05,,,0.89,meteohub,2012-11-13 03:52:00,
2012-11-12 22:54:00,38.3,31.5,30.45,WSW,248,7.0,15.0,76,0.05,,,0.89,meteohub,2012-11-13 03:54:00,
2012-11-12 22:56:00,38.3,31.5,30.45,WSW,248,6.0,15.0,76,0.05,,,0.89,meteohub,2012-11-13 03:56:00,
2012-11-12 22:57:00,38.3,31.5,30.45,West,270,2.0,15.0,76,0.05,,,0.89,meteohub,2012-11-13 03:57:00,
2012-11-12 23:00:00,38.3,31.6,30.45,North,0,6.0,15.0,77,0.05,,,0.89,meteohub,2012-11-13 04:00:00,
2012-11-12 23:01:00,38.3,31.6,30.45,West,270,6.0,15.0,77,0.04,,,0.89,meteohub,2012-11-13 04:01:00,
2012-11-12 23:02:00,38.3,31.6,30.45,West,270,4.0,15.0,77,0.04,,,0.89,meteohub,2012-11-13 04:02:00,
2012-11-12 23:03:00,38.3,31.6,30.45,West,270,11.0,15.0,77,0.04,,,0.89,meteohub,2012-11-13 04:03:00,
2012-11-12 23:05:00,38.1,31.6,30.45,WSW,248,2.0,15.0,77,0.04,,,0.89,meteohub,2012-11-13 04:05:00,
2012-11-12 23:07:00,38.1,31.6,30.44,West,270,11.0,11.0,77,0.02,,,0.89,meteohub,2012-11-13 04:07:00,
2012-11-12 23:08:00,38.1,31.6,30.44,West,270,11.0,11.0,77,0.02,,,0.89,meteohub,2012-11-13 04:08:00,
2012-11-12 23:10:00,37.9,31.5,30.44,West,270,6.0,11.0,77,0.02,,,0.89,meteohub,2012-11-13 04:10:00,
2012-11-12 23:12:00,37.9,31.5,30.44,NW,315,8.0,11.0,77,0.02,,,0.89,meteohub,2012-11-13 04:12:00,
2012-11-12 23:13:00,37.9,31.5,30.44,NW,315,5.0,11.0,77,0.02,,,0.89,meteohub,2012-11-13 04:13:00,
2012-11-12 23:14:00,37.9,31.5,30.44,West,270,3.0,11.0,77,0.02,,,0.89,meteohub,2012-11-13 04:14:00,
2012-11-12 23:15:00,37.9,31.5,30.45,WSW,248,4.0,14.0,77,0.02,,,0.89,meteohub,2012-11-13 04:15:00,
2012-11-12 23:18:00,37.9,31.5,30.45,North,0,9.0,14.0,77,0.02,,,0.89,meteohub,2012-11-13 04:18:00,
2012-11-12 23:19:00,37.8,31.3,30.45,WSW,248,8.0,14.0,77,0.02,,,0.89,meteohub,2012-11-13 04:19:00,
2012-11-12 23:21:00,37.8,31.3,30.45,NW,315,5.0,14.0,77,0.02,,,0.89,meteohub,2012-11-13 04:21:00,
2012-11-12 23:23:00,37.8,31.3,30.45,WSW,248,8.0,14.0,77,0.02,,,0.89,meteohub,2012-11-13 04:23:00,
2012-11-12 23:24:00,37.8,31.3,30.45,West,270,7.0,14.0,77,0.02,,,0.89,meteohub,2012-11-13 04:24:00,
2012-11-12 23:27:00,37.6,31.1,30.45,NW,315,11.0,14.0,77,0.05,,,0.91,meteohub,2012-11-13 04:27:00,
2012-11-12 23:28:00,37.6,31.1,30.45,West,270,13.0,14.0,77,0.05,,,0.91,meteohub,2012-11-13 04:28:00,
2012-11-12 23:29:00,37.4,30.9,30.45,West,270,8.0,14.0,77,0.05,,,0.91,meteohub,2012-11-13 04:29:00,
2012-11-12 23:30:00,37.4,30.9,30.45,West,270,8.0,14.0,77,0.05,,,0.91,meteohub,2012-11-13 04:30:00,
2012-11-12 23:32:00,37.4,30.9,30.45,West,270,12.0,12.0,77,0.05,,,0.91,meteohub,2012-11-13 04:32:00,
2012-11-12 23:34:00,37.2,30.7,30.45,NW,315,11.0,11.0,77,0.05,,,0.91,meteohub,2012-11-13 04:34:00,
2012-11-12 23:36:00,37.2,30.7,30.45,WSW,248,7.0,13.0,77,0.05,,,0.91,meteohub,2012-11-13 04:36:00,
2012-11-12 23:38:00,37.0,30.6,30.45,NW,315,10.0,13.0,77,0.05,,,0.91,meteohub,2012-11-13 04:38:00,
2012-11-12 23:40:00,36.9,30.4,30.45,WSW,248,8.0,13.0,77,0.02,,,0.91,meteohub,2012-11-13 04:40:00,
2012-11-12 23:41:00,37.2,30.7,30.45,West,270,12.0,17.0,77,0.02,,,0.91,meteohub,2012-11-13 04:41:00,
2012-11-12 23:42:00,36.7,30.2,30.45,WSW,248,7.0,17.0,77,0.02,,,0.91,meteohub,2012-11-13 04:42:00,
2012-11-12 23:45:00,36.7,29.8,30.45,North,0,6.0,17.0,76,0.02,,,0.91,meteohub,2012-11-13 04:45:00,
2012-11-12 23:46:00,36.7,29.8,30.45,North,0,6.0,17.0,76,0.02,,,0.91,meteohub,2012-11-13 04:46:00,
2012-11-12 23:47:00,36.5,29.7,30.45,West,270,14.0,17.0,76,0.02,,,0.91,meteohub,2012-11-13 04:47:00,
2012-11-12 23:50:00,36.3,29.5,30.45,West,270,14.0,14.0,76,0.05,,,0.93,meteohub,2012-11-13 04:50:00,
2012-11-12 23:51:00,36.3,29.5,30.45,West,270,8.0,14.0,76,0.05,,,0.93,meteohub,2012-11-13 04:51:00,
2012-11-12 23:55:00,36.1,29.3,30.45,West,270,5.0,14.0,76,0.05,,,0.93,meteohub,2012-11-13 04:55:00,
2012-11-12 23:56:00,36.1,29.3,30.45,West,270,5.0,14.0,76,0.05,,,0.93,meteohub,2012-11-13 04:56:00,